Time,TemperatureF,DewpointF,PressureIn,WindDirection,WindDirectionDegrees,WindSpeedMPH,WindSpeedGustMPH,Humidity,HourlyPrecipIn,Conditions,Clouds,dailyrainin,SolarRadiationWatts/m^2,SoftwareType,DateUTC
2013-01-06 00:00:00,37.1,29.3,30.12,SSW,208,0.0,0.0,73,0.00,,,0.00,0,TxWx,2013-01-06 05:00:00,
2013-01-06 00:02:00,37.1,29.4,30.12,SSW,211,1.9,1.9,73,0.00,,,0.00,0,TxWx,2013-01-06 05:02:00,
2013-01-06 00:05:00,37.0,29.7,30.12,WSW,257,0.7,0.0,74,0.00,,,0.00,0,TxWx,2013-01-06 05:05:00,
2013-01-06 00:06:00,37.0,29.7,30.12,WSW,257,0.7,0.0,74,0.00,,,0.00,0,TxWx,2013-01-06 05:06:00,
2013-01-06 00:07:00,36.7,29.9,30.12,SW,218,1.9,2.0,76,0.00,,,0.00,0,TxWx,2013-01-06 05:07:00,
2013-01-06 00:10:00,36.7,29.8,30.12,SW,233,0.3,0.0,75,0.00,,,0.00,0,TxWx,2013-01-06 05:10:00,
2013-01-06 00:11:00,36.7,29.8,30.12,SW,233,0.3,0.0,75,0.00,,,0.00,0,TxWx,2013-01-06 05:11:00,
2013-01-06 00:12:00,36.4,30.2,30.12,South,182,0.7,1.0,77,0.00,,,0.00,0,TxWx,2013-01-06 05:12:00,
2013-01-06 00:16:00,36.0,30.1,30.12,South,174,1.1,1.1,79,0.00,,,0.00,0,TxWx,2013-01-06 05:16:00,
2013-01-06 00:17:00,36.0,30.1,30.11,SW,214,1.9,2.0,79,0.00,,,0.00,0,TxWx,2013-01-06 05:17:00,
2013-01-06 00:18:00,36.0,30.1,30.11,SSW,208,2.6,3.0,79,0.00,,,0.00,0,TxWx,2013-01-06 05:18:00,
2013-01-06 00:21:00,36.2,30.1,30.11,SSW,200,1.5,1.5,78,0.00,,,0.00,0,TxWx,2013-01-06 05:21:00,
2013-01-06 00:22:00,36.4,29.7,30.11,South,186,1.1,1.1,76,0.00,,,0.00,0,TxWx,2013-01-06 05:22:00,
2013-01-06 00:23:00,36.4,29.7,30.11,SSW,196,0.7,0.0,76,0.00,,,0.00,0,TxWx,2013-01-06 05:23:00,
2013-01-06 00:26:00,36.5,30.0,30.11,South,188,1.1,1.1,76,0.00,,,0.00,0,TxWx,2013-01-06 05:26:00,
2013-01-06 00:27:00,36.6,29.7,30.11,South,181,0.7,0.0,75,0.00,,,0.00,0,TxWx,2013-01-06 05:27:00,
2013-01-06 00:28:00,36.6,29.7,30.11,SSW,195,0.7,1.0,75,0.00,,,0.00,0,TxWx,2013-01-06 05:28:00,
2013-01-06 00:31:00,37.0,29.4,30.11,SSW,193,1.5,1.5,73,0.00,,,0.00,0,TxWx,2013-01-06 05:31:00,
2013-01-06 00:32:00,37.0,29.5,30.11,South,179,1.1,1.1,74,0.00,,,0.00,0,TxWx,2013-01-06 05:32:00,
2013-01-06 00:33:00,37.0,29.5,30.11,SW,216,2.3,2.3,74,0.00,,,0.00,0,TxWx,2013-01-06 05:33:00,
2013-01-06 00:36:00,36.9,29.9,30.11,SW,220,1.1,1.1,75,0.00,,,0.00,0,TxWx,2013-01-06 05:36:00,
2013-01-06 00:37:00,36.8,30.0,30.11,SW,215,1.5,1.5,76,0.00,,,0.00,0,TxWx,2013-01-06 05:37:00,
2013-01-06 00:38:00,36.8,30.0,30.11,SSW,205,1.5,1.5,76,0.00,,,0.00,0,TxWx,2013-01-06 05:38:00,
2013-01-06 00:41:00,36.5,30.8,30.11,SSE,168,0.3,0.0,79,0.00,,,0.00,0,TxWx,2013-01-06 05:41:00,
2013-01-06 00:42:00,36.6,30.3,30.11,SSE,167,0.7,0.0,77,0.00,,,0.00,0,TxWx,2013-01-06 05:42:00,
2013-01-06 00:43:00,36.8,30.5,30.11,South,182,0.7,0.0,77,0.00,,,0.00,0,TxWx,2013-01-06 05:43:00,
2013-01-06 00:47:00,37.4,30.6,30.11,SW,217,0.3,0.0,76,0.00,,,0.00,0,TxWx,2013-01-06 05:47:00,
2013-01-06 00:48:00,37.3,30.6,30.11,SSW,195,0.7,0.0,76,0.00,,,0.00,0,TxWx,2013-01-06 05:48:00,
2013-01-06 00:52:00,37.3,31.3,30.11,WSW,238,0.0,0.0,78,0.00,,,0.00,0,TxWx,2013-01-06 05:52:00,
2013-01-06 00:53:00,37.3,31.3,30.11,WSW,238,0.0,0.0,78,0.00,,,0.00,0,TxWx,2013-01-06 05:53:00,
2013-01-06 00:54:00,37.3,31.3,30.11,West,265,0.0,0.0,78,0.00,,,0.00,0,TxWx,2013-01-06 05:54:00,
2013-01-06 00:57:00,37.1,31.3,30.11,South,173,0.0,0.0,79,0.00,,,0.00,0,TxWx,2013-01-06 05:57:00,
2013-01-06 00:58:00,37.2,31.2,30.11,South,175,0.0,0.0,78,0.00,,,0.00,0,TxWx,2013-01-06 05:58:00,
2013-01-06 00:59:00,37.2,31.3,30.11,SSW,198,0.3,0.0,78,0.00,,,0.00,0,TxWx,2013-01-06 05:59:00,
2013-01-06 01:02:00,37.3,31.5,30.11,SW,214,1.1,1.1,79,0.00,,,0.00,0,TxWx,2013-01-06 06:02:00,
2013-01-06 01:03:00,37.4,31.5,30.11,SW,215,1.1,1.1,79,0.00,,,0.00,0,TxWx,2013-01-06 06:03:00,
2013-01-06 01:04:00,37.5,31.5,30.11,SSW,213,0.0,0.0,78,0.00,,,0.00,0,TxWx,2013-01-06 06:04:00,
2013-01-06 01:07:00,37.5,32.0,30.11,SSW,195,1.1,1.1,80,0.00,,,0.00,0,TxWx,2013-01-06 06:07:00,
2013-01-06 01:08:00,37.3,32.1,30.11,SSW,200,1.1,1.1,81,0.00,,,0.00,0,TxWx,2013-01-06 06:08:00,
2013-01-06 01:09:00,37.2,32.1,30.11,South,172,0.7,1.0,81,0.00,,,0.00,0,TxWx,2013-01-06 06:09:00,
2013-01-06 01:12:00,37.2,32.2,30.11,SW,217,0.3,0.0,81,0.00,,,0.00,0,TxWx,2013-01-06 06:12:00,
2013-01-06 01:13:00,37.3,32.2,30.11,SW,217,0.0,0.0,81,0.00,,,0.00,0,TxWx,2013-01-06 06:13:00,
2013-01-06 01:14:00,37.3,32.2,30.11,South,182,0.0,0.0,81,0.00,,,0.00,0,TxWx,2013-01-06 06:14:00,
2013-01-06 01:17:00,37.4,32.2,30.11,South,190,0.3,0.0,81,0.00,,,0.00,0,TxWx,2013-01-06 06:17:00,
2013-01-06 01:18:00,37.4,32.3,30.11,South,191,0.3,0.0,81,0.00,,,0.00,0,TxWx,2013-01-06 06:18:00,
2013-01-06 01:19:00,37.6,32.4,30.11,South,190,0.3,0.0,81,0.00,,,0.00,0,TxWx,2013-01-06 06:19:00,
2013-01-06 01:20:00,37.7,32.5,30.11,South,190,0.0,0.0,81,0.00,,,0.00,0,TxWx,2013-01-06 06:20:00,
2013-01-06 01:23:00,37.8,32.6,30.11,SSW,211,1.1,1.1,81,0.00,,,0.00,0,TxWx,2013-01-06 06:23:00,
2013-01-06 01:24:00,37.7,32.6,30.11,WSW,238,0.0,0.0,81,0.00,,,0.00,0,TxWx,2013-01-06 06:24:00,
2013-01-06 01:25:00,37.8,32.7,30.11,SSW,203,0.0,0.0,81,0.00,,,0.00,0,TxWx,2013-01-06 06:25:00,
2013-01-06 01:28:00,37.6,32.7,30.11,SSW,207,0.3,0.0,82,0.00,,,0.00,0,TxWx,2013-01-06 06:28:00,
2013-01-06 01:29:00,37.6,32.7,30.11,SW,227,1.5,1.5,82,0.00,,,0.00,0,TxWx,2013-01-06 06:29:00,
2013-01-06 01:30:00,37.5,32.7,30.11,SSW,196,1.1,1.1,82,0.00,,,0.00,0,TxWx,2013-01-06 06:30:00,
2013-01-06 01:33:00,37.3,33.0,30.11,South,186,1.5,1.5,84,0.00,,,0.00,0,TxWx,2013-01-06 06:33:00,
2013-01-06 01:34:00,37.4,33.1,30.11,South,171,0.7,0.0,84,0.00,,,0.00,0,TxWx,2013-01-06 06:34:00,
2013-01-06 01:35:00,37.4,33.1,30.11,South,175,0.3,0.0,84,0.00,,,0.00,0,TxWx,2013-01-06 06:35:00,
2013-01-06 01:38:00,37.4,33.2,30.11,SSW,200,0.7,0.0,84,0.00,,,0.00,0,TxWx,2013-01-06 06:38:00,
2013-01-06 01:39:00,37.4,33.2,30.11,South,179,0.0,0.0,84,0.00,,,0.00,0,TxWx,2013-01-06 06:39:00,
2013-01-06 01:41:00,37.3,33.2,30.11,SW,220,1.1,1.1,84,0.00,,,0.00,0,TxWx,2013-01-06 06:41:00,
2013-01-06 01:43:00,37.1,33.2,30.11,SW,235,0.7,1.0,85,0.00,,,0.00,0,TxWx,2013-01-06 06:43:00,
2013-01-06 01:44:00,37.1,33.2,30.11,South,181,1.1,1.1,85,0.00,,,0.00,0,TxWx,2013-01-06 06:44:00,
2013-01-06 01:46:00,37.0,33.1,30.12,South,184,0.3,0.0,85,0.00,,,0.00,0,TxWx,2013-01-06 06:46:00,
2013-01-06 01:48:00,37.0,32.9,30.11,West,278,0.0,0.0,85,0.00,,,0.00,0,TxWx,2013-01-06 06:48:00,
2013-01-06 01:49:00,37.0,32.9,30.11,WSW,238,0.3,0.0,85,0.00,,,0.00,0,TxWx,2013-01-06 06:49:00,
2013-01-06 01:51:00,36.9,33.0,30.11,WSW,248,0.0,0.0,85,0.00,,,0.00,0,TxWx,2013-01-06 06:51:00,
2013-01-06 01:53:00,36.8,33.2,30.11,SSW,205,0.0,0.0,86,0.00,,,0.00,0,TxWx,2013-01-06 06:53:00,
2013-01-06 01:54:00,36.8,33.3,30.11,SSW,206,0.0,0.0,87,0.00,,,0.00,0,TxWx,2013-01-06 06:54:00,
2013-01-06 01:55:00,36.7,33.3,30.11,SW,230,0.0,0.0,87,0.00,,,0.00,0,TxWx,2013-01-06 06:55:00,
2013-01-06 01:57:00,36.6,33.4,30.11,SW,230,0.0,0.0,88,0.00,,,0.00,0,TxWx,2013-01-06 06:57:00,
2013-01-06 01:59:00,36.5,33.4,30.11,SW,230,0.0,0.0,88,0.00,,,0.00,0,TxWx,2013-01-06 06:59:00,
2013-01-06 02:00:00,36.5,33.6,30.11,SW,229,0.0,0.0,88,0.00,,,0.00,0,TxWx,2013-01-06 07:00:00,
2013-01-06 02:02:00,36.4,33.5,30.11,SW,229,0.0,0.0,89,0.00,,,0.00,0,TxWx,2013-01-06 07:02:00,
2013-01-06 02:04:00,36.4,33.6,30.11,SW,230,0.0,0.0,89,0.00,,,0.00,0,TxWx,2013-01-06 07:04:00,
2013-01-06 02:06:00,36.3,33.7,30.11,SSW,202,0.0,0.0,90,0.00,,,0.00,0,TxWx,2013-01-06 07:06:00,
2013-01-06 02:07:00,36.3,33.8,30.11,SSW,198,0.0,0.0,90,0.00,,,0.00,0,TxWx,2013-01-06 07:07:00,
2013-01-06 02:09:00,36.3,33.8,30.11,SW,218,0.0,0.0,90,0.00,,,0.00,0,TxWx,2013-01-06 07:09:00,
2013-01-06 02:10:00,36.3,33.8,30.11,SW,218,0.0,0.0,90,0.00,,,0.00,0,TxWx,2013-01-06 07:10:00,
2013-01-06 02:11:00,36.2,33.9,30.11,SW,218,0.0,0.0,91,0.00,,,0.00,0,TxWx,2013-01-06 07:11:00,
2013-01-06 02:12:00,36.2,33.9,30.11,SW,227,0.0,0.0,91,0.00,,,0.00,0,TxWx,2013-01-06 07:12:00,
2013-01-06 02:14:00,36.2,34.1,30.11,SW,227,0.0,0.0,91,0.00,,,0.00,0,TxWx,2013-01-06 07:14:00,
2013-01-06 02:15:00,36.2,34.1,30.11,SW,227,0.0,0.0,92,0.00,,,0.00,0,TxWx,2013-01-06 07:15:00,
2013-01-06 02:16:00,36.2,34.1,30.11,SW,227,0.0,0.0,92,0.00,,,0.00,0,TxWx,2013-01-06 07:16:00,
2013-01-06 02:18:00,36.0,34.1,30.11,SSW,202,1.1,1.1,92,0.00,,,0.00,0,TxWx,2013-01-06 07:18:00,
2013-01-06 02:19:00,36.0,34.2,30.11,SSW,202,0.3,0.0,93,0.00,,,0.00,0,TxWx,2013-01-06 07:19:00,
2013-01-06 02:20:00,36.0,34.4,30.11,SSW,212,0.0,0.0,93,0.00,,,0.00,0,TxWx,2013-01-06 07:20:00,
2013-01-06 02:21:00,36.1,34.4,30.11,SSW,212,0.0,0.0,93,0.00,,,0.00,0,TxWx,2013-01-06 07:21:00,
2013-01-06 02:23:00,36.0,34.5,30.11,WSW,238,0.0,0.0,93,0.00,,,0.00,0,TxWx,2013-01-06 07:23:00,
2013-01-06 02:24:00,36.0,34.5,30.10,SW,233,0.0,0.0,94,0.00,,,0.00,0,TxWx,2013-01-06 07:24:00,
2013-01-06 02:25:00,36.0,34.5,30.10,West,267,0.0,0.0,94,0.00,,,0.00,0,TxWx,2013-01-06 07:25:00,
2013-01-06 02:27:00,36.1,34.6,30.10,SW,233,0.3,0.0,94,0.00,,,0.00,0,TxWx,2013-01-06 07:27:00,
2013-01-06 02:28:00,36.0,34.6,30.10,West,264,0.0,0.0,94,0.00,,,0.00,0,TxWx,2013-01-06 07:28:00,
2013-01-06 02:30:00,36.1,34.7,30.10,SW,215,0.3,0.0,94,0.00,,,0.00,0,TxWx,2013-01-06 07:30:00,
2013-01-06 02:32:00,36.0,34.8,30.10,SSW,205,0.0,0.0,95,0.00,,,0.00,0,TxWx,2013-01-06 07:32:00,
2013-01-06 02:33:00,36.0,34.7,30.10,South,174,0.3,0.0,95,0.00,,,0.00,0,TxWx,2013-01-06 07:33:00,
2013-01-06 02:35:00,36.0,34.8,30.10,SSW,208,1.5,1.5,95,0.00,,,0.00,0,TxWx,2013-01-06 07:35:00,
2013-01-06 02:36:00,36.0,34.8,30.10,SW,219,1.5,1.5,95,0.00,,,0.00,0,TxWx,2013-01-06 07:36:00,
2013-01-06 02:37:00,36.1,34.9,30.10,West,273,0.7,1.0,95,0.00,,,0.00,0,TxWx,2013-01-06 07:37:00,
2013-01-06 02:38:00,36.0,34.7,30.10,WSW,240,0.7,1.0,94,0.00,,,0.00,0,TxWx,2013-01-06 07:38:00,
2013-01-06 02:40:00,36.0,34.7,30.10,South,180,0.7,0.0,95,0.00,,,0.00,0,TxWx,2013-01-06 07:40:00,
2013-01-06 02:41:00,36.0,34.8,30.10,SSW,197,0.7,1.0,95,0.00,,,0.00,0,TxWx,2013-01-06 07:41:00,
2013-01-06 02:42:00,36.1,34.9,30.10,WSW,240,0.3,0.0,95,0.00,,,0.00,0,TxWx,2013-01-06 07:42:00,
2013-01-06 02:43:00,36.2,35.0,30.10,SSW,202,0.0,0.0,95,0.00,,,0.00,0,TxWx,2013-01-06 07:43:00,
2013-01-06 02:45:00,36.2,35.0,30.10,SW,234,1.1,1.1,95,0.00,,,0.00,0,TxWx,2013-01-06 07:45:00,
2013-01-06 02:46:00,36.2,35.0,30.10,WSW,241,0.7,0.0,95,0.00,,,0.00,0,TxWx,2013-01-06 07:46:00,
2013-01-06 02:47:00,36.2,35.0,30.10,SSW,202,1.1,1.1,95,0.00,,,0.00,0,TxWx,2013-01-06 07:47:00,
2013-01-06 02:48:00,36.2,35.1,30.10,SW,218,0.0,0.0,95,0.00,,,0.00,0,TxWx,2013-01-06 07:48:00,
2013-01-06 02:50:00,36.2,35.1,30.10,SSW,194,0.7,0.0,95,0.00,,,0.00,0,TxWx,2013-01-06 07:50:00,
2013-01-06 02:51:00,36.2,35.1,30.10,WSW,238,0.7,0.0,95,0.00,,,0.00,0,TxWx,2013-01-06 07:51:00,
2013-01-06 02:52:00,36.2,35.1,30.09,SW,215,1.9,2.0,95,0.00,,,0.00,0,TxWx,2013-01-06 07:52:00,
2013-01-06 02:54:00,36.1,35.0,30.09,West,272,0.0,0.0,95,0.00,,,0.00,0,TxWx,2013-01-06 07:54:00,
2013-01-06 02:55:00,36.2,35.1,30.09,SW,226,0.7,0.0,95,0.00,,,0.00,0,TxWx,2013-01-06 07:55:00,
2013-01-06 02:56:00,36.1,35.0,30.09,SSW,211,1.5,1.5,95,0.00,,,0.00,0,TxWx,2013-01-06 07:56:00,
2013-01-06 02:57:00,36.1,35.1,30.09,WSW,241,0.3,0.0,96,0.00,,,0.00,0,TxWx,2013-01-06 07:57:00,
2013-01-06 02:59:00,36.1,35.1,30.09,South,190,1.9,1.9,96,0.00,,,0.00,0,TxWx,2013-01-06 07:59:00,
2013-01-06 03:00:00,36.2,35.2,30.09,SW,231,0.3,0.0,96,0.00,,,0.00,0,TxWx,2013-01-06 08:00:00,
2013-01-06 03:01:00,36.2,35.3,30.09,SSW,213,0.3,0.0,96,0.00,,,0.00,0,TxWx,2013-01-06 08:01:00,
2013-01-06 03:02:00,36.3,35.4,30.09,SSW,211,0.0,0.0,96,0.00,,,0.00,0,TxWx,2013-01-06 08:02:00,
2013-01-06 03:04:00,36.3,35.4,30.09,WSW,257,0.0,0.0,96,0.00,,,0.00,0,TxWx,2013-01-06 08:04:00,
2013-01-06 03:05:00,36.3,35.4,30.09,WNW,286,0.0,0.0,96,0.00,,,0.00,0,TxWx,2013-01-06 08:05:00,
2013-01-06 03:07:00,36.2,35.2,30.09,WNW,287,0.0,0.0,96,0.00,,,0.00,0,TxWx,2013-01-06 08:07:00,
2013-01-06 03:08:00,36.0,34.9,30.09,WSW,254,0.3,0.0,95,0.00,,,0.00,0,TxWx,2013-01-06 08:08:00,
2013-01-06 03:09:00,35.8,34.8,30.09,SW,227,0.3,0.0,96,0.00,,,0.00,0,TxWx,2013-01-06 08:09:00,
2013-01-06 03:10:00,35.8,34.9,30.09,WSW,249,0.0,0.0,96,0.00,,,0.00,0,TxWx,2013-01-06 08:10:00,
2013-01-06 03:12:00,35.8,34.9,30.09,WSW,239,1.1,1.1,96,0.00,,,0.00,0,TxWx,2013-01-06 08:12:00,
2013-01-06 03:13:00,35.7,34.9,30.09,West,268,0.7,0.0,96,0.00,,,0.00,0,TxWx,2013-01-06 08:13:00,
2013-01-06 03:14:00,35.7,34.9,30.09,WSW,254,0.7,1.0,97,0.00,,,0.00,0,TxWx,2013-01-06 08:14:00,
2013-01-06 03:15:00,35.7,35.0,30.09,SSW,203,0.3,0.0,97,0.00,,,0.00,0,TxWx,2013-01-06 08:15:00,
2013-01-06 03:17:00,35.8,35.2,30.09,SSW,200,0.3,0.0,97,0.00,,,0.00,0,TxWx,2013-01-06 08:17:00,
2013-01-06 03:18:00,35.9,35.4,30.09,SSW,201,1.1,1.1,98,0.00,,,0.00,0,TxWx,2013-01-06 08:18:00,
2013-01-06 03:19:00,36.0,35.5,30.09,SSW,196,1.5,1.5,98,0.00,,,0.00,0,TxWx,2013-01-06 08:19:00,
2013-01-06 03:21:00,36.0,35.6,30.09,WSW,242,0.7,1.0,98,0.00,,,0.00,0,TxWx,2013-01-06 08:21:00,
2013-01-06 03:22:00,36.1,35.6,30.09,West,261,1.1,1.1,98,0.00,,,0.00,0,TxWx,2013-01-06 08:22:00,
2013-01-06 03:23:00,36.0,35.5,30.09,SW,218,1.5,1.5,97,0.00,,,0.00,0,TxWx,2013-01-06 08:23:00,
2013-01-06 03:24:00,36.0,35.5,30.09,SW,223,1.1,1.1,98,0.00,,,0.00,0,TxWx,2013-01-06 08:24:00,
2013-01-06 03:26:00,36.0,35.6,30.09,SSW,200,0.0,0.0,98,0.00,,,0.00,0,TxWx,2013-01-06 08:26:00,
2013-01-06 03:27:00,36.1,35.6,30.09,SW,216,1.9,1.9,98,0.00,,,0.00,0,TxWx,2013-01-06 08:27:00,
2013-01-06 03:28:00,36.1,35.7,30.09,SSW,203,0.3,0.0,98,0.00,,,0.00,0,TxWx,2013-01-06 08:28:00,
2013-01-06 03:29:00,36.1,35.7,30.09,WSW,238,1.1,1.1,98,0.00,,,0.00,0,TxWx,2013-01-06 08:29:00,
2013-01-06 03:31:00,36.2,35.8,30.08,South,178,0.3,0.0,98,0.00,,,0.01,0,TxWx,2013-01-06 08:31:00,
2013-01-06 03:32:00,36.2,35.8,30.08,South,183,0.3,0.0,98,0.01,,,0.01,0,TxWx,2013-01-06 08:32:00,
2013-01-06 03:33:00,36.2,35.8,30.08,WSW,239,0.7,1.0,98,0.01,,,0.01,0,TxWx,2013-01-06 08:33:00,
2013-01-06 03:34:00,36.2,35.8,30.08,SSW,203,0.3,0.0,98,0.01,,,0.01,0,TxWx,2013-01-06 08:34:00,
2013-01-06 03:36:00,36.2,35.8,30.08,WSW,238,1.5,1.5,98,0.01,,,0.01,0,TxWx,2013-01-06 08:36:00,
2013-01-06 03:37:00,36.2,35.8,30.08,SW,222,1.1,1.1,98,0.01,,,0.01,0,TxWx,2013-01-06 08:37:00,
2013-01-06 03:38:00,36.2,35.8,30.08,SW,223,1.1,1.1,98,0.01,,,0.01,0,TxWx,2013-01-06 08:38:00,
2013-01-06 03:40:00,36.1,35.7,30.08,South,181,1.9,2.0,98,0.01,,,0.01,0,TxWx,2013-01-06 08:40:00,
2013-01-06 03:41:00,36.1,35.8,30.08,SW,214,1.1,1.1,98,0.01,,,0.01,0,TxWx,2013-01-06 08:41:00,
2013-01-06 03:42:00,36.2,35.8,30.08,South,179,0.3,0.0,98,0.01,,,0.01,0,TxWx,2013-01-06 08:42:00,
2013-01-06 03:44:00,36.2,35.9,30.08,WSW,241,0.3,0.0,98,0.01,,,0.01,0,TxWx,2013-01-06 08:44:00,
2013-01-06 03:45:00,36.2,35.8,30.08,West,265,0.3,0.0,98,0.01,,,0.01,0,TxWx,2013-01-06 08:45:00,
2013-01-06 03:46:00,36.2,35.8,30.08,West,267,0.3,0.0,98,0.01,,,0.01,0,TxWx,2013-01-06 08:46:00,
2013-01-06 03:47:00,36.2,35.8,30.08,West,267,0.7,0.0,98,0.01,,,0.01,0,TxWx,2013-01-06 08:47:00,
2013-01-06 03:49:00,36.1,35.7,30.08,West,268,0.0,0.0,98,0.01,,,0.01,0,TxWx,2013-01-06 08:49:00,
2013-01-06 03:50:00,36.1,35.7,30.08,WSW,245,0.0,0.0,98,0.01,,,0.01,0,TxWx,2013-01-06 08:50:00,
2013-01-06 03:51:00,36.0,35.7,30.08,WSW,245,0.0,0.0,98,0.01,,,0.01,0,TxWx,2013-01-06 08:51:00,
2013-01-06 03:52:00,36.1,35.7,30.08,WSW,245,0.0,0.0,98,0.01,,,0.01,0,TxWx,2013-01-06 08:52:00,
2013-01-06 03:54:00,36.0,35.6,30.08,West,265,0.0,0.0,98,0.01,,,0.01,0,TxWx,2013-01-06 08:54:00,
2013-01-06 03:55:00,35.9,35.6,30.07,West,266,0.0,0.0,98,0.01,,,0.01,0,TxWx,2013-01-06 08:55:00,
2013-01-06 03:56:00,35.9,35.5,30.07,West,266,0.0,0.0,98,0.01,,,0.01,0,TxWx,2013-01-06 08:56:00,
2013-01-06 03:57:00,35.8,35.4,30.07,West,268,0.7,0.0,98,0.01,,,0.01,0,TxWx,2013-01-06 08:57:00,
2013-01-06 03:59:00,35.7,35.3,30.08,West,268,0.3,0.0,98,0.01,,,0.01,0,TxWx,2013-01-06 08:59:00,
2013-01-06 04:00:00,35.7,35.3,30.08,SW,218,0.3,0.0,98,0.01,,,0.01,0,TxWx,2013-01-06 09:00:00,
2013-01-06 04:01:00,35.6,35.3,30.08,SW,221,0.3,0.0,98,0.01,,,0.01,0,TxWx,2013-01-06 09:01:00,
2013-01-06 04:03:00,35.6,35.4,30.08,West,275,0.7,0.0,99,0.01,,,0.01,0,TxWx,2013-01-06 09:03:00,
2013-01-06 04:04:00,35.5,35.3,30.08,WSW,257,0.0,0.0,99,0.01,,,0.01,0,TxWx,2013-01-06 09:04:00,
2013-01-06 04:05:00,35.6,35.3,30.07,WSW,257,0.0,0.0,99,0.01,,,0.01,0,TxWx,2013-01-06 09:05:00,
2013-01-06 04:06:00,35.6,35.3,30.07,WSW,257,0.0,0.0,99,0.01,,,0.01,0,TxWx,2013-01-06 09:06:00,
2013-01-06 04:08:00,35.7,35.6,30.07,WNW,292,0.7,0.0,99,0.01,,,0.01,0,TxWx,2013-01-06 09:08:00,
2013-01-06 04:09:00,35.6,35.5,30.07,WNW,284,0.3,0.0,99,0.01,,,0.01,0,TxWx,2013-01-06 09:09:00,
2013-01-06 04:10:00,35.6,35.4,30.07,WNW,284,0.0,0.0,99,0.01,,,0.01,0,TxWx,2013-01-06 09:10:00,
2013-01-06 04:12:00,35.6,35.5,30.07,SW,230,0.3,0.0,99,0.01,,,0.01,0,TxWx,2013-01-06 09:12:00,
2013-01-06 04:13:00,35.5,35.4,30.07,WNW,287,0.3,0.0,99,0.01,,,0.01,0,TxWx,2013-01-06 09:13:00,
2013-01-06 04:14:00,35.5,35.3,30.07,WNW,285,0.0,0.0,99,0.01,,,0.01,0,TxWx,2013-01-06 09:14:00,
2013-01-06 04:16:00,35.4,35.3,30.07,WNW,285,0.0,0.0,99,0.01,,,0.01,0,TxWx,2013-01-06 09:16:00,
2013-01-06 04:17:00,35.4,35.3,30.07,WNW,283,0.0,0.0,99,0.01,,,0.01,0,TxWx,2013-01-06 09:17:00,
2013-01-06 04:18:00,35.4,35.3,30.07,SW,216,1.1,1.1,99,0.01,,,0.01,0,TxWx,2013-01-06 09:18:00,
2013-01-06 04:20:00,35.4,35.3,30.07,SSW,199,1.1,1.1,99,0.01,,,0.01,0,TxWx,2013-01-06 09:20:00,
2013-01-06 04:21:00,35.6,35.6,30.07,SSW,209,1.1,1.1,100,0.01,,,0.01,0,TxWx,2013-01-06 09:21:00,
2013-01-06 04:22:00,35.8,35.8,30.07,SW,224,0.7,0.0,100,0.01,,,0.01,0,TxWx,2013-01-06 09:22:00,
2013-01-06 04:24:00,35.9,35.9,30.07,SW,219,0.7,1.0,100,0.01,,,0.01,0,TxWx,2013-01-06 09:24:00,
2013-01-06 04:25:00,35.9,35.9,30.07,South,183,1.1,1.1,100,0.01,,,0.01,0,TxWx,2013-01-06 09:25:00,
2013-01-06 04:26:00,36.1,36.1,30.07,SW,217,0.7,0.0,100,0.01,,,0.01,0,TxWx,2013-01-06 09:26:00,
2013-01-06 04:27:00,36.2,36.2,30.07,WSW,239,0.0,0.0,100,0.01,,,0.01,0,TxWx,2013-01-06 09:27:00,
2013-01-06 04:29:00,36.3,36.3,30.07,WSW,243,0.0,0.0,100,0.01,,,0.01,0,TxWx,2013-01-06 09:29:00,
2013-01-06 04:30:00,36.3,36.3,30.07,WSW,242,0.0,0.0,100,0.01,,,0.01,0,TxWx,2013-01-06 09:30:00,
2013-01-06 04:31:00,36.3,36.3,30.07,WSW,243,0.0,0.0,100,0.01,,,0.01,0,TxWx,2013-01-06 09:31:00,
2013-01-06 04:33:00,35.9,35.8,30.07,West,268,1.1,1.1,99,0.00,,,0.01,0,TxWx,2013-01-06 09:33:00,
2013-01-06 04:34:00,35.6,35.5,30.07,West,268,0.7,1.0,99,0.00,,,0.01,0,TxWx,2013-01-06 09:34:00,
2013-01-06 04:35:00,35.5,35.3,30.07,West,267,1.5,1.5,99,0.00,,,0.01,0,TxWx,2013-01-06 09:35:00,
2013-01-06 04:36:00,35.3,35.2,30.07,WNW,298,1.1,1.1,99,0.00,,,0.01,0,TxWx,2013-01-06 09:36:00,
2013-01-06 04:38:00,35.1,34.9,30.07,West,266,0.0,0.0,99,0.00,,,0.01,0,TxWx,2013-01-06 09:38:00,
2013-01-06 04:39:00,34.9,34.8,30.07,WSW,250,1.1,1.1,99,0.00,,,0.01,0,TxWx,2013-01-06 09:39:00,
2013-01-06 04:40:00,34.9,34.9,30.07,WNW,291,1.5,1.5,99,0.00,,,0.01,0,TxWx,2013-01-06 09:40:00,
2013-01-06 04:41:00,34.9,34.9,30.07,West,271,1.5,1.5,100,0.00,,,0.01,0,TxWx,2013-01-06 09:41:00,
2013-01-06 04:43:00,34.8,34.8,30.07,WNW,294,0.3,0.0,100,0.00,,,0.01,0,TxWx,2013-01-06 09:43:00,
2013-01-06 04:44:00,34.8,34.8,30.07,WNW,292,0.0,0.0,100,0.00,,,0.01,0,TxWx,2013-01-06 09:44:00,
2013-01-06 04:45:00,34.8,34.8,30.07,West,270,0.7,0.0,100,0.00,,,0.01,0,TxWx,2013-01-06 09:45:00,
2013-01-06 04:46:00,34.7,34.7,30.06,WNW,284,0.0,0.0,100,0.00,,,0.01,0,TxWx,2013-01-06 09:46:00,
2013-01-06 04:48:00,34.8,34.8,30.06,West,263,0.3,0.0,100,0.00,,,0.01,0,TxWx,2013-01-06 09:48:00,
2013-01-06 04:49:00,34.8,34.8,30.06,West,262,0.0,0.0,100,0.00,,,0.01,0,TxWx,2013-01-06 09:49:00,
2013-01-06 04:50:00,34.8,34.8,30.06,SSW,209,0.0,0.0,100,0.00,,,0.01,0,TxWx,2013-01-06 09:50:00,
2013-01-06 04:51:00,34.8,34.8,30.06,SSW,205,0.0,0.0,100,0.00,,,0.01,0,TxWx,2013-01-06 09:51:00,
2013-01-06 04:53:00,34.8,34.8,30.06,SSW,203,0.3,0.0,100,0.00,,,0.01,0,TxWx,2013-01-06 09:53:00,
2013-01-06 04:54:00,34.9,34.9,30.06,SW,227,0.0,0.0,100,0.00,,,0.01,0,TxWx,2013-01-06 09:54:00,
2013-01-06 04:55:00,34.9,34.9,30.06,WSW,237,0.0,0.0,100,0.00,,,0.01,0,TxWx,2013-01-06 09:55:00,
2013-01-06 04:57:00,34.9,34.9,30.06,West,278,0.0,0.0,100,0.00,,,0.01,0,TxWx,2013-01-06 09:57:00,
2013-01-06 04:58:00,34.5,34.5,30.06,West,274,0.3,0.0,100,0.00,,,0.01,0,TxWx,2013-01-06 09:58:00,
2013-01-06 04:59:00,34.5,34.5,30.06,WNW,288,0.0,0.0,100,0.00,,,0.01,0,TxWx,2013-01-06 09:59:00,
2013-01-06 05:00:00,34.5,34.5,30.06,WNW,284,0.7,0.0,100,0.00,,,0.01,0,TxWx,2013-01-06 10:00:00,
2013-01-06 05:02:00,34.4,34.4,30.06,WSW,256,0.0,0.0,100,0.00,,,0.01,0,TxWx,2013-01-06 10:02:00,
2013-01-06 05:03:00,34.3,34.3,30.06,West,260,0.0,0.0,100,0.00,,,0.01,0,TxWx,2013-01-06 10:03:00,
2013-01-06 05:05:00,34.2,34.2,30.06,West,260,0.0,0.0,100,0.00,,,0.01,0,TxWx,2013-01-06 10:05:00,
2013-01-06 05:07:00,34.1,34.1,30.06,West,281,0.0,0.0,100,0.00,,,0.01,0,TxWx,2013-01-06 10:07:00,
2013-01-06 05:08:00,34.0,34.0,30.06,West,281,0.0,0.0,100,0.00,,,0.01,0,TxWx,2013-01-06 10:08:00,
2013-01-06 05:10:00,34.0,34.0,30.06,West,270,0.0,0.0,100,0.00,,,0.01,0,TxWx,2013-01-06 10:10:00,
2013-01-06 05:11:00,33.9,33.9,30.06,West,270,0.0,0.0,100,0.00,,,0.01,0,TxWx,2013-01-06 10:11:00,
2013-01-06 05:12:00,33.9,33.9,30.06,West,273,0.0,0.0,100,0.00,,,0.01,0,TxWx,2013-01-06 10:12:00,
2013-01-06 05:13:00,34.0,34.0,30.06,WNW,286,0.0,0.0,100,0.00,,,0.01,0,TxWx,2013-01-06 10:13:00,
2013-01-06 05:15:00,34.0,34.0,30.06,West,278,1.5,1.5,100,0.00,,,0.01,0,TxWx,2013-01-06 10:15:00,
2013-01-06 05:16:00,34.1,34.1,30.06,WNW,291,0.0,0.0,100,0.00,,,0.01,0,TxWx,2013-01-06 10:16:00,
2013-01-06 05:17:00,34.1,34.1,30.06,West,277,0.3,0.0,100,0.00,,,0.01,0,TxWx,2013-01-06 10:17:00,
2013-01-06 05:18:00,34.1,34.1,30.06,WSW,238,1.5,1.5,100,0.00,,,0.01,0,TxWx,2013-01-06 10:18:00,
2013-01-06 05:20:00,34.3,34.3,30.06,West,264,0.7,0.0,100,0.00,,,0.01,0,TxWx,2013-01-06 10:20:00,
2013-01-06 05:22:00,34.3,34.3,30.06,SW,225,1.1,1.1,100,0.00,,,0.01,0,TxWx,2013-01-06 10:22:00,
2013-01-06 05:24:00,34.3,34.3,30.07,WSW,254,0.7,0.0,100,0.00,,,0.01,0,TxWx,2013-01-06 10:24:00,
2013-01-06 05:26:00,34.4,34.4,30.07,West,275,0.0,0.0,100,0.00,,,0.01,0,TxWx,2013-01-06 10:26:00,
2013-01-06 05:27:00,34.4,34.4,30.07,SW,216,2.3,2.3,100,0.00,,,0.01,0,TxWx,2013-01-06 10:27:00,
2013-01-06 05:28:00,34.4,34.4,30.07,SSW,207,0.7,1.0,100,0.00,,,0.01,0,TxWx,2013-01-06 10:28:00,
2013-01-06 05:29:00,34.5,34.5,30.07,SW,216,1.1,1.1,100,0.00,,,0.01,0,TxWx,2013-01-06 10:29:00,
2013-01-06 05:31:00,34.5,34.5,30.07,SSW,205,0.7,1.0,100,0.00,,,0.01,0,TxWx,2013-01-06 10:31:00,
2013-01-06 05:32:00,34.5,34.5,30.07,WSW,250,0.3,0.0,100,0.00,,,0.01,0,TxWx,2013-01-06 10:32:00,
2013-01-06 05:33:00,34.6,34.6,30.06,SW,233,0.3,0.0,100,0.00,,,0.01,0,TxWx,2013-01-06 10:33:00,
2013-01-06 05:34:00,34.5,34.5,30.06,SW,236,1.1,1.1,100,0.00,,,0.01,0,TxWx,2013-01-06 10:34:00,
2013-01-06 05:36:00,34.5,34.5,30.06,SSW,204,1.1,1.1,100,0.00,,,0.01,0,TxWx,2013-01-06 10:36:00,
2013-01-06 05:37:00,34.5,34.5,30.06,SW,236,0.3,0.0,100,0.00,,,0.01,0,TxWx,2013-01-06 10:37:00,
2013-01-06 05:38:00,34.5,34.5,30.06,SW,236,0.0,0.0,100,0.00,,,0.01,0,TxWx,2013-01-06 10:38:00,
2013-01-06 05:39:00,34.5,34.5,30.06,SW,236,0.0,0.0,100,0.00,,,0.01,0,TxWx,2013-01-06 10:39:00,
2013-01-06 05:41:00,34.5,34.5,30.06,WSW,249,0.0,0.0,100,0.00,,,0.01,0,TxWx,2013-01-06 10:41:00,
2013-01-06 05:42:00,34.5,34.5,30.06,West,271,0.0,0.0,100,0.00,,,0.01,0,TxWx,2013-01-06 10:42:00,
2013-01-06 05:43:00,34.4,34.4,30.06,West,271,0.3,0.0,100,0.00,,,0.01,0,TxWx,2013-01-06 10:43:00,
2013-01-06 05:44:00,34.4,34.4,30.06,West,272,0.0,0.0,100,0.00,,,0.01,0,TxWx,2013-01-06 10:44:00,
2013-01-06 05:47:00,34.3,34.3,30.06,WSW,255,0.3,0.0,100,0.00,,,0.01,0,TxWx,2013-01-06 10:47:00,
2013-01-06 05:49:00,34.3,34.3,30.06,WSW,243,0.3,0.0,100,0.00,,,0.01,0,TxWx,2013-01-06 10:49:00,
2013-01-06 05:52:00,34.3,34.3,30.06,West,276,0.3,0.0,100,0.00,,,0.01,0,TxWx,2013-01-06 10:52:00,
2013-01-06 05:54:00,34.3,34.3,30.06,West,276,0.0,0.0,100,0.00,,,0.01,0,TxWx,2013-01-06 10:54:00,
2013-01-06 05:57:00,34.3,34.3,30.06,West,278,0.0,0.0,100,0.00,,,0.01,0,TxWx,2013-01-06 10:57:00,
2013-01-06 05:59:00,34.3,34.3,30.06,West,278,0.0,0.0,100,0.00,,,0.01,0,TxWx,2013-01-06 10:59:00,
2013-01-06 06:03:00,34.3,34.3,30.06,West,274,1.5,1.5,100,0.00,,,0.01,0,TxWx,2013-01-06 11:03:00,
2013-01-06 06:04:00,34.3,34.3,30.06,West,281,1.1,1.1,100,0.00,,,0.01,0,TxWx,2013-01-06 11:04:00,
2013-01-06 06:08:00,34.3,34.3,30.06,West,267,0.7,0.0,100,0.00,,,0.01,0,TxWx,2013-01-06 11:08:00,
2013-01-06 06:09:00,34.3,34.3,30.06,WNW,298,0.0,0.0,100,0.00,,,0.01,0,TxWx,2013-01-06 11:09:00,
2013-01-06 06:10:00,34.3,34.3,30.06,West,280,0.0,0.0,100,0.00,,,0.01,0,TxWx,2013-01-06 11:10:00,
2013-01-06 06:13:00,34.3,34.3,30.06,WNW,283,0.0,0.0,100,0.00,,,0.01,0,TxWx,2013-01-06 11:13:00,
2013-01-06 06:15:00,34.3,34.3,30.06,WNW,302,0.0,0.0,100,0.00,,,0.01,0,TxWx,2013-01-06 11:15:00,
2013-01-06 06:18:00,34.3,34.3,30.06,WNW,297,0.0,0.0,100,0.00,,,0.01,0,TxWx,2013-01-06 11:18:00,
2013-01-06 06:20:00,34.2,34.2,30.06,WNW,285,0.0,0.0,100,0.00,,,0.01,0,TxWx,2013-01-06 11:20:00,
2013-01-06 06:23:00,34.3,34.3,30.06,West,259,0.0,0.0,100,0.00,,,0.01,0,TxWx,2013-01-06 11:23:00,
2013-01-06 06:25:00,34.2,34.2,30.06,WNW,302,0.0,0.0,100,0.00,,,0.01,0,TxWx,2013-01-06 11:25:00,
2013-01-06 06:26:00,34.1,34.1,30.06,WNW,302,0.0,0.0,100,0.00,,,0.01,0,TxWx,2013-01-06 11:26:00,
2013-01-06 06:28:00,34.1,34.1,30.07,WNW,284,0.3,0.0,100,0.00,,,0.01,0,TxWx,2013-01-06 11:28:00,
2013-01-06 06:30:00,34.1,34.1,30.07,WNW,302,0.3,0.0,100,0.00,,,0.01,0,TxWx,2013-01-06 11:30:00,
2013-01-06 06:31:00,34.0,34.0,30.07,WNW,303,0.0,0.0,100,0.00,,,0.01,0,TxWx,2013-01-06 11:31:00,
2013-01-06 06:33:00,34.1,34.1,30.07,WNW,290,0.0,0.0,100,0.00,,,0.01,0,TxWx,2013-01-06 11:33:00,
2013-01-06 06:35:00,34.0,34.0,30.06,WNW,288,0.0,0.0,100,0.00,,,0.01,0,TxWx,2013-01-06 11:35:00,
2013-01-06 06:36:00,34.1,34.1,30.06,WNW,288,0.0,0.0,100,0.00,,,0.01,0,TxWx,2013-01-06 11:36:00,
2013-01-06 06:38:00,34.0,34.0,30.06,West,273,1.1,1.1,100,0.00,,,0.01,0,TxWx,2013-01-06 11:38:00,
2013-01-06 06:40:00,34.0,34.0,30.06,West,273,0.0,0.0,100,0.00,,,0.01,0,TxWx,2013-01-06 11:40:00,
2013-01-06 06:41:00,34.0,34.0,30.07,WNW,301,0.7,0.0,100,0.00,,,0.01,0,TxWx,2013-01-06 11:41:00,
2013-01-06 06:43:00,34.0,34.0,30.07,WNW,286,0.0,0.0,100,0.00,,,0.01,0,TxWx,2013-01-06 11:43:00,
2013-01-06 06:44:00,34.0,34.0,30.07,West,277,0.0,0.0,100,0.00,,,0.01,0,TxWx,2013-01-06 11:44:00,
2013-01-06 06:45:00,34.0,34.0,30.07,WSW,253,1.5,1.5,100,0.00,,,0.01,0,TxWx,2013-01-06 11:45:00,
2013-01-06 06:46:00,34.0,34.0,30.07,WSW,257,1.5,1.5,100,0.00,,,0.01,0,TxWx,2013-01-06 11:46:00,
2013-01-06 06:49:00,34.1,34.1,30.07,WNW,286,0.3,0.0,100,0.00,,,0.01,0,TxWx,2013-01-06 11:49:00,
2013-01-06 06:50:00,34.2,34.2,30.06,WNW,296,0.0,0.0,100,0.00,,,0.01,0,TxWx,2013-01-06 11:50:00,
2013-01-06 06:52:00,34.1,34.1,30.06,West,275,0.7,0.0,100,0.00,,,0.01,0,TxWx,2013-01-06 11:52:00,
2013-01-06 06:54:00,34.1,34.1,30.07,WNW,303,0.3,0.0,100,0.00,,,0.01,0,TxWx,2013-01-06 11:54:00,
2013-01-06 06:55:00,34.1,34.1,30.07,WNW,284,0.3,0.0,100,0.00,,,0.01,0,TxWx,2013-01-06 11:55:00,
2013-01-06 06:57:00,34.1,34.1,30.07,WNW,303,0.3,0.0,100,0.00,,,0.01,0,TxWx,2013-01-06 11:57:00,
2013-01-06 06:59:00,34.1,34.1,30.06,WNW,284,1.1,1.1,100,0.00,,,0.01,0,TxWx,2013-01-06 11:59:00,
2013-01-06 07:00:00,34.1,34.1,30.07,WNW,285,0.7,0.0,100,0.00,,,0.01,0,TxWx,2013-01-06 12:00:00,
2013-01-06 07:02:00,34.0,34.0,30.07,West,273,0.0,0.0,100,0.00,,,0.01,0,TxWx,2013-01-06 12:02:00,
2013-01-06 07:04:00,34.0,34.0,30.07,West,269,0.3,0.0,100,0.00,,,0.01,0,TxWx,2013-01-06 12:04:00,
2013-01-06 07:05:00,34.0,34.0,30.07,West,267,0.0,0.0,100,0.00,,,0.01,0,TxWx,2013-01-06 12:05:00,
2013-01-06 07:08:00,34.0,34.0,30.07,WSW,246,0.0,0.0,100,0.00,,,0.01,0,TxWx,2013-01-06 12:08:00,
2013-01-06 07:09:00,34.0,34.0,30.07,WSW,248,0.3,0.0,100,0.00,,,0.01,0,TxWx,2013-01-06 12:09:00,
2013-01-06 07:10:00,33.9,33.9,30.07,WSW,252,0.3,0.0,100,0.00,,,0.01,0,TxWx,2013-01-06 12:10:00,
2013-01-06 07:13:00,34.0,34.0,30.07,WNW,286,0.0,0.0,100,0.00,,,0.01,0,TxWx,2013-01-06 12:13:00,
2013-01-06 07:14:00,33.9,33.9,30.07,West,271,0.0,0.0,100,0.00,,,0.01,0,TxWx,2013-01-06 12:14:00,
2013-01-06 07:15:00,33.9,33.9,30.07,West,271,0.0,0.0,100,0.00,,,0.01,0,TxWx,2013-01-06 12:15:00,
2013-01-06 07:18:00,34.0,34.0,30.07,SSW,212,1.1,1.1,100,0.00,,,0.01,0,TxWx,2013-01-06 12:18:00,
2013-01-06 07:19:00,34.0,34.0,30.07,SW,227,0.7,1.0,100,0.00,,,0.01,0,TxWx,2013-01-06 12:19:00,
2013-01-06 07:20:00,34.1,34.1,30.07,West,270,0.0,0.0,100,0.00,,,0.01,0,TxWx,2013-01-06 12:20:00,
2013-01-06 07:21:00,34.1,34.1,30.07,West,277,0.7,0.0,100,0.00,,,0.01,0,TxWx,2013-01-06 12:21:00,
2013-01-06 07:23:00,34.1,34.1,30.07,WSW,249,0.3,0.0,100,0.00,,,0.01,0,TxWx,2013-01-06 12:23:00,
2013-01-06 07:25:00,34.1,34.1,30.07,WSW,252,0.3,0.0,100,0.00,,,0.01,0,TxWx,2013-01-06 12:25:00,
2013-01-06 07:26:00,34.1,34.1,30.07,West,267,0.7,0.0,100,0.00,,,0.01,0,TxWx,2013-01-06 12:26:00,
2013-01-06 07:28:00,34.1,34.1,30.07,West,273,0.0,0.0,100,0.00,,,0.01,0,TxWx,2013-01-06 12:28:00,
2013-01-06 07:30:00,34.1,34.1,30.07,WNW,293,0.0,0.0,100,0.00,,,0.01,0,TxWx,2013-01-06 12:30:00,
2013-01-06 07:31:00,34.0,34.0,30.07,WNW,287,0.0,0.0,100,0.00,,,0.01,0,TxWx,2013-01-06 12:31:00,
2013-01-06 07:33:00,34.0,34.0,30.07,WNW,291,1.1,1.1,100,0.00,,,0.01,0,TxWx,2013-01-06 12:33:00,
2013-01-06 07:35:00,33.9,33.9,30.08,WNW,295,0.3,0.0,100,0.00,,,0.01,0,TxWx,2013-01-06 12:35:00,
2013-01-06 07:36:00,33.9,33.9,30.08,WNW,303,0.7,0.0,100,0.00,,,0.01,0,TxWx,2013-01-06 12:36:00,
2013-01-06 07:38:00,33.9,33.9,30.07,WNW,287,0.0,0.0,100,0.00,,,0.01,0,TxWx,2013-01-06 12:38:00,
2013-01-06 07:40:00,33.9,33.9,30.07,WNW,301,0.0,0.0,100,0.00,,,0.01,0,TxWx,2013-01-06 12:40:00,
2013-01-06 07:41:00,34.0,34.0,30.07,WNW,301,0.0,0.0,100,0.00,,,0.01,0,TxWx,2013-01-06 12:41:00,
2013-01-06 07:43:00,34.0,34.0,30.07,WNW,298,0.3,0.0,100,0.00,,,0.01,0,TxWx,2013-01-06 12:43:00,
2013-01-06 07:45:00,33.9,33.9,30.07,WNW,302,0.0,0.0,100,0.00,,,0.01,0,TxWx,2013-01-06 12:45:00,
2013-01-06 07:46:00,34.0,34.0,30.07,WNW,302,0.0,0.0,100,0.00,,,0.01,0,TxWx,2013-01-06 12:46:00,
2013-01-06 07:49:00,34.0,34.0,30.07,WNW,301,0.0,0.0,100,0.00,,,0.01,1,TxWx,2013-01-06 12:49:00,
2013-01-06 07:50:00,33.9,33.9,30.07,SW,226,0.0,0.0,100,0.00,,,0.01,1,TxWx,2013-01-06 12:50:00,
2013-01-06 07:51:00,34.0,34.0,30.07,SW,227,0.0,0.0,100,0.00,,,0.01,2,TxWx,2013-01-06 12:51:00,
2013-01-06 07:54:00,34.0,34.0,30.07,SW,226,0.0,0.0,100,0.00,,,0.01,3,TxWx,2013-01-06 12:54:00,
2013-01-06 07:55:00,34.0,34.0,30.07,SW,226,0.0,0.0,100,0.00,,,0.01,3,TxWx,2013-01-06 12:55:00,
2013-01-06 07:56:00,34.0,34.0,30.07,SW,227,0.0,0.0,100,0.00,,,0.01,3,TxWx,2013-01-06 12:56:00,
2013-01-06 07:57:00,33.9,33.9,30.07,SW,227,0.0,0.0,100,0.00,,,0.01,3,TxWx,2013-01-06 12:57:00,
2013-01-06 07:59:00,33.8,33.8,30.07,SSW,193,0.0,0.0,100,0.00,,,0.01,3,TxWx,2013-01-06 12:59:00,
2013-01-06 08:00:00,33.8,33.8,30.08,SSW,210,0.0,0.0,100,0.00,,,0.01,3,TxWx,2013-01-06 13:00:00,
2013-01-06 08:02:00,33.8,33.8,30.08,SSW,197,0.0,0.0,100,0.00,,,0.01,3,TxWx,2013-01-06 13:02:00,
2013-01-06 08:04:00,33.8,33.8,30.08,SSW,193,0.0,0.0,100,0.00,,,0.01,4,TxWx,2013-01-06 13:04:00,
2013-01-06 08:05:00,34.0,34.0,30.08,WNW,289,0.0,0.0,100,0.00,,,0.01,4,TxWx,2013-01-06 13:05:00,
2013-01-06 08:07:00,33.9,33.9,30.08,WNW,288,0.0,0.0,100,0.00,,,0.01,4,TxWx,2013-01-06 13:07:00,
2013-01-06 08:09:00,33.9,33.9,30.08,WNW,288,0.0,0.0,100,0.00,,,0.01,5,TxWx,2013-01-06 13:09:00,
2013-01-06 08:10:00,34.0,34.0,30.08,WNW,288,0.0,0.0,100,0.00,,,0.01,5,TxWx,2013-01-06 13:10:00,
2013-01-06 08:12:00,34.0,34.0,30.08,WNW,288,0.0,0.0,100,0.00,,,0.01,5,TxWx,2013-01-06 13:12:00,
2013-01-06 08:15:00,34.0,34.0,30.08,SSW,201,0.0,0.0,100,0.00,,,0.01,5,TxWx,2013-01-06 13:15:00,
2013-01-06 08:16:00,34.3,34.3,30.08,SSW,201,0.0,0.0,100,0.00,,,0.01,4,TxWx,2013-01-06 13:16:00,
2013-01-06 08:17:00,34.5,34.5,30.08,South,190,0.0,0.0,100,0.00,,,0.01,4,TxWx,2013-01-06 13:17:00,
2013-01-06 08:20:00,34.8,34.8,30.08,SSW,199,1.5,1.5,100,0.00,,,0.01,3,TxWx,2013-01-06 13:20:00,
2013-01-06 08:21:00,35.0,35.0,30.08,SSW,196,1.1,1.1,100,0.00,,,0.01,3,TxWx,2013-01-06 13:21:00,
2013-01-06 08:22:00,35.0,35.0,30.08,SSE,165,1.1,1.1,100,0.00,,,0.01,3,TxWx,2013-01-06 13:22:00,
2013-01-06 08:23:00,35.0,35.0,30.08,SSE,162,0.7,1.0,100,0.00,,,0.01,3,TxWx,2013-01-06 13:23:00,
2013-01-06 08:25:00,35.1,35.1,30.08,South,173,0.7,0.0,100,0.00,,,0.01,4,TxWx,2013-01-06 13:25:00,
2013-01-06 08:26:00,35.2,35.2,30.07,South,174,0.7,0.0,100,0.00,,,0.01,3,TxWx,2013-01-06 13:26:00,
2013-01-06 08:27:00,35.4,35.4,30.07,South,179,1.1,1.1,100,0.00,,,0.01,4,TxWx,2013-01-06 13:27:00,
2013-01-06 08:28:00,35.5,35.5,30.07,SE,138,1.1,1.1,100,0.00,,,0.01,4,TxWx,2013-01-06 13:28:00,
2013-01-06 08:30:00,35.6,35.6,30.07,SSW,196,0.0,0.0,100,0.00,,,0.01,5,TxWx,2013-01-06 13:30:00,
2013-01-06 08:31:00,35.6,35.6,30.07,SSW,208,0.0,0.0,100,0.00,,,0.01,7,TxWx,2013-01-06 13:31:00,
2013-01-06 08:32:00,35.6,35.6,30.07,SSW,210,0.0,0.0,100,0.00,,,0.01,6,TxWx,2013-01-06 13:32:00,
2013-01-06 08:33:00,35.6,35.6,30.07,SSW,210,0.0,0.0,100,0.00,,,0.01,7,TxWx,2013-01-06 13:33:00,
2013-01-06 08:35:00,35.5,35.5,30.07,SSW,199,0.3,0.0,100,0.00,,,0.01,7,TxWx,2013-01-06 13:35:00,
2013-01-06 08:36:00,35.5,35.5,30.07,SW,218,1.5,1.5,100,0.00,,,0.01,7,TxWx,2013-01-06 13:36:00,
2013-01-06 08:38:00,35.6,35.6,30.07,South,184,1.1,1.1,100,0.00,,,0.01,7,TxWx,2013-01-06 13:38:00,
2013-01-06 08:41:00,35.7,35.7,30.07,SW,224,0.7,1.0,100,0.00,,,0.01,5,TxWx,2013-01-06 13:41:00,
2013-01-06 08:43:00,36.0,36.0,30.07,South,172,0.7,0.0,100,0.00,,,0.01,5,TxWx,2013-01-06 13:43:00,
2013-01-06 08:46:00,36.2,36.2,30.07,SSW,203,1.1,1.1,100,0.00,,,0.01,5,TxWx,2013-01-06 13:46:00,
2013-01-06 08:47:00,36.3,36.3,30.07,South,175,0.3,0.0,100,0.00,,,0.01,5,TxWx,2013-01-06 13:47:00,
2013-01-06 08:48:00,36.3,36.3,30.07,South,174,0.7,0.0,99,0.00,,,0.01,6,TxWx,2013-01-06 13:48:00,
2013-01-06 08:51:00,36.5,36.2,30.06,SSW,198,0.3,0.0,98,0.00,,,0.01,8,TxWx,2013-01-06 13:51:00,
2013-01-06 08:52:00,36.5,36.1,30.06,SSW,198,0.0,0.0,98,0.00,,,0.01,8,TxWx,2013-01-06 13:52:00,
2013-01-06 08:53:00,36.5,36.2,30.06,NW,320,0.0,0.0,98,0.00,,,0.01,9,TxWx,2013-01-06 13:53:00,
2013-01-06 08:54:00,36.4,36.0,30.06,West,264,0.7,1.0,98,0.00,,,0.01,6,TxWx,2013-01-06 13:54:00,
2013-01-06 08:56:00,36.2,35.8,30.06,South,176,1.1,1.1,98,0.00,,,0.01,4,TxWx,2013-01-06 13:56:00,
2013-01-06 08:57:00,36.2,35.8,30.06,SSW,209,1.1,1.1,98,0.00,,,0.01,5,TxWx,2013-01-06 13:57:00,
2013-01-06 08:59:00,36.1,35.7,30.06,South,188,0.7,0.0,98,0.00,,,0.01,4,TxWx,2013-01-06 13:59:00,
2013-01-06 09:01:00,36.1,35.8,30.06,WNW,285,0.0,0.0,98,0.00,,,0.01,3,TxWx,2013-01-06 14:01:00,
2013-01-06 09:02:00,36.0,35.6,30.07,WNW,285,0.0,0.0,98,0.00,,,0.01,4,TxWx,2013-01-06 14:02:00,
2013-01-06 09:04:00,35.8,35.3,30.07,WNW,285,0.0,0.0,98,0.00,,,0.01,3,TxWx,2013-01-06 14:04:00,
2013-01-06 09:06:00,35.5,34.9,30.07,SSW,193,0.3,0.0,97,0.00,,,0.01,2,TxWx,2013-01-06 14:06:00,
2013-01-06 09:07:00,35.6,35.2,30.07,South,172,0.3,0.0,98,0.00,,,0.01,2,TxWx,2013-01-06 14:07:00,
2013-01-06 09:09:00,35.7,35.3,30.07,WSW,246,0.3,0.0,98,0.00,,,0.01,2,TxWx,2013-01-06 14:09:00,
2013-01-06 09:12:00,35.9,35.6,30.07,SSW,201,0.3,0.0,98,0.00,,,0.01,2,TxWx,2013-01-06 14:12:00,
2013-01-06 09:14:00,36.2,35.9,30.07,South,179,1.5,1.5,98,0.00,,,0.01,3,TxWx,2013-01-06 14:14:00,
2013-01-06 09:15:00,36.2,35.6,30.07,South,186,2.6,2.6,97,0.00,,,0.01,3,TxWx,2013-01-06 14:15:00,
2013-01-06 09:17:00,36.4,35.8,30.06,South,170,1.1,1.1,97,0.00,,,0.01,3,TxWx,2013-01-06 14:17:00,
2013-01-06 09:19:00,36.7,35.8,30.07,SSE,164,0.0,0.0,96,0.00,,,0.01,2,TxWx,2013-01-06 14:19:00,
2013-01-06 09:20:00,36.8,35.8,30.07,South,186,0.0,0.0,96,0.00,,,0.01,2,TxWx,2013-01-06 14:20:00,
2013-01-06 09:22:00,36.6,35.5,30.07,SSW,201,1.9,1.9,95,0.00,,,0.01,2,TxWx,2013-01-06 14:22:00,
2013-01-06 09:23:00,36.6,35.5,30.06,South,178,0.7,1.0,95,0.00,,,0.01,2,TxWx,2013-01-06 14:23:00,
2013-01-06 09:24:00,36.7,35.6,30.06,South,177,0.3,0.0,95,0.00,,,0.01,3,TxWx,2013-01-06 14:24:00,
2013-01-06 09:25:00,36.5,35.4,30.06,SSW,203,1.1,1.1,95,0.00,,,0.01,3,TxWx,2013-01-06 14:25:00,
2013-01-06 09:27:00,36.5,35.3,30.06,South,175,1.1,1.1,95,0.00,,,0.01,3,TxWx,2013-01-06 14:27:00,
2013-01-06 09:28:00,36.5,35.4,30.06,South,173,0.3,0.0,95,0.00,,,0.01,3,TxWx,2013-01-06 14:28:00,
2013-01-06 09:29:00,36.6,35.5,30.06,SSW,207,1.1,1.1,95,0.00,,,0.01,3,TxWx,2013-01-06 14:29:00,
2013-01-06 09:31:00,36.9,35.8,30.06,South,173,1.5,1.5,95,0.00,,,0.01,3,TxWx,2013-01-06 14:31:00,
2013-01-06 09:32:00,37.0,35.6,30.06,SSW,193,0.7,0.0,94,0.00,,,0.01,3,TxWx,2013-01-06 14:32:00,
2013-01-06 09:33:00,36.9,35.4,30.06,SW,223,0.3,0.0,94,0.00,,,0.01,3,TxWx,2013-01-06 14:33:00,
2013-01-06 09:34:00,36.9,35.4,30.06,SW,223,0.0,0.0,94,0.00,,,0.01,3,TxWx,2013-01-06 14:34:00,
2013-01-06 09:36:00,36.8,35.4,30.06,SW,220,0.0,0.0,94,0.00,,,0.01,3,TxWx,2013-01-06 14:36:00,
2013-01-06 09:37:00,36.7,35.2,30.06,South,189,1.1,1.1,94,0.00,,,0.01,3,TxWx,2013-01-06 14:37:00,
2013-01-06 09:38:00,36.6,35.1,30.06,SSW,192,0.7,0.0,94,0.00,,,0.01,3,TxWx,2013-01-06 14:38:00,
2013-01-06 09:39:00,36.5,35.1,30.06,South,172,1.1,1.1,94,0.00,,,0.01,3,TxWx,2013-01-06 14:39:00,
2013-01-06 09:41:00,36.2,34.9,30.06,South,182,0.7,1.0,94,0.00,,,0.01,3,TxWx,2013-01-06 14:41:00,
2013-01-06 09:42:00,36.3,35.0,30.06,South,188,0.7,0.0,95,0.00,,,0.01,3,TxWx,2013-01-06 14:42:00,
2013-01-06 09:43:00,36.3,35.1,30.07,SSW,197,1.9,1.9,95,0.00,,,0.01,3,TxWx,2013-01-06 14:43:00,
2013-01-06 09:46:00,36.6,35.3,30.07,South,183,1.1,1.1,95,0.00,,,0.01,3,TxWx,2013-01-06 14:46:00,
2013-01-06 09:47:00,36.6,35.2,30.07,South,189,1.1,1.1,94,0.00,,,0.01,3,TxWx,2013-01-06 14:47:00,
2013-01-06 09:48:00,36.6,35.1,30.07,SW,230,1.5,1.5,94,0.00,,,0.01,3,TxWx,2013-01-06 14:48:00,
2013-01-06 09:51:00,36.7,35.1,30.07,South,178,1.5,1.5,94,0.00,,,0.01,3,TxWx,2013-01-06 14:51:00,
2013-01-06 09:52:00,36.7,35.1,30.07,SSE,159,2.3,2.3,93,0.00,,,0.01,3,TxWx,2013-01-06 14:52:00,
2013-01-06 09:53:00,37.0,35.3,30.07,South,170,1.1,1.1,93,0.00,,,0.01,5,TxWx,2013-01-06 14:53:00,
2013-01-06 09:56:00,36.6,34.9,30.07,SSW,199,0.0,0.0,93,0.00,,,0.01,5,TxWx,2013-01-06 14:56:00,
2013-01-06 09:57:00,36.6,34.9,30.07,South,178,2.3,2.3,93,0.00,,,0.01,5,TxWx,2013-01-06 14:57:00,
2013-01-06 09:58:00,36.7,34.9,30.07,South,169,1.5,1.5,93,0.00,,,0.01,5,TxWx,2013-01-06 14:58:00,
2013-01-06 10:01:00,36.5,34.7,30.07,SW,217,2.3,2.3,92,0.00,,,0.01,4,TxWx,2013-01-06 15:01:00,
2013-01-06 10:02:00,36.5,34.7,30.07,South,188,1.9,1.9,93,0.00,,,0.01,4,TxWx,2013-01-06 15:02:00,
2013-01-06 10:03:00,36.5,34.7,30.07,SSW,192,1.1,1.1,93,0.00,,,0.01,5,TxWx,2013-01-06 15:03:00,
2013-01-06 10:04:00,36.5,34.7,30.07,SSW,205,1.9,1.9,93,0.00,,,0.01,5,TxWx,2013-01-06 15:04:00,
2013-01-06 10:06:00,36.3,34.7,30.07,South,177,0.7,0.0,93,0.00,,,0.01,5,TxWx,2013-01-06 15:06:00,
2013-01-06 10:07:00,36.5,34.9,30.07,SSW,196,1.9,1.9,93,0.00,,,0.01,4,TxWx,2013-01-06 15:07:00,
2013-01-06 10:08:00,36.6,34.9,30.07,South,181,1.5,1.5,93,0.00,,,0.01,5,TxWx,2013-01-06 15:08:00,
2013-01-06 10:09:00,36.6,34.9,30.07,SSW,202,2.3,2.3,93,0.00,,,0.01,5,TxWx,2013-01-06 15:09:00,
2013-01-06 10:11:00,36.6,34.8,30.07,SSW,196,0.7,0.0,93,0.00,,,0.01,5,TxWx,2013-01-06 15:11:00,
2013-01-06 10:12:00,36.7,34.9,30.07,South,180,1.9,1.9,93,0.00,,,0.01,5,TxWx,2013-01-06 15:12:00,
2013-01-06 10:13:00,37.0,35.2,30.07,SSW,208,1.5,1.5,93,0.00,,,0.01,4,TxWx,2013-01-06 15:13:00,
2013-01-06 10:14:00,37.0,35.2,30.07,SSW,210,1.1,1.1,93,0.00,,,0.01,4,TxWx,2013-01-06 15:14:00,
2013-01-06 10:16:00,37.0,34.9,30.07,SW,215,2.3,2.3,92,0.00,,,0.01,3,TxWx,2013-01-06 15:16:00,
2013-01-06 10:17:00,36.9,34.8,30.07,SSW,208,0.7,0.0,92,0.00,,,0.01,2,TxWx,2013-01-06 15:17:00,
2013-01-06 10:18:00,36.8,34.7,30.07,SW,233,1.9,1.9,92,0.00,,,0.01,2,TxWx,2013-01-06 15:18:00,
2013-01-06 10:19:00,36.9,34.8,30.07,WSW,258,1.5,1.5,92,0.00,,,0.01,2,TxWx,2013-01-06 15:19:00,
2013-01-06 10:21:00,36.9,34.8,30.07,South,185,1.1,1.1,92,0.00,,,0.01,3,TxWx,2013-01-06 15:21:00,
2013-01-06 10:22:00,37.0,34.8,30.07,SW,216,1.5,1.5,91,0.00,,,0.01,3,TxWx,2013-01-06 15:22:00,
2013-01-06 10:23:00,36.8,34.6,30.07,SSE,160,1.5,1.5,91,0.00,,,0.01,3,TxWx,2013-01-06 15:23:00,
2013-01-06 10:24:00,36.9,34.8,30.07,SSW,196,0.7,1.0,91,0.00,,,0.01,3,TxWx,2013-01-06 15:24:00,
2013-01-06 10:26:00,36.8,34.5,30.07,SW,224,1.5,1.5,91,0.00,,,0.01,3,TxWx,2013-01-06 15:26:00,
2013-01-06 10:27:00,36.9,34.7,30.07,SW,233,0.0,0.0,91,0.00,,,0.01,3,TxWx,2013-01-06 15:27:00,
2013-01-06 10:28:00,36.8,34.5,30.07,WSW,241,1.5,1.5,91,0.00,,,0.01,3,TxWx,2013-01-06 15:28:00,
2013-01-06 10:29:00,36.5,34.1,30.07,WSW,248,1.9,1.9,91,0.00,,,0.01,3,TxWx,2013-01-06 15:29:00,
2013-01-06 10:31:00,36.4,34.3,30.07,SW,229,1.1,1.1,91,0.00,,,0.01,3,TxWx,2013-01-06 15:31:00,
2013-01-06 10:33:00,36.5,34.4,30.07,SW,233,1.5,1.5,92,0.00,,,0.01,3,TxWx,2013-01-06 15:33:00,
2013-01-06 10:34:00,36.5,34.4,30.07,SSW,209,1.1,1.1,92,0.00,,,0.01,3,TxWx,2013-01-06 15:34:00,
2013-01-06 10:36:00,36.7,34.6,30.07,SSW,193,1.1,1.1,92,0.00,,,0.01,3,TxWx,2013-01-06 15:36:00,
2013-01-06 10:38:00,36.9,34.7,30.07,SW,227,3.0,3.0,91,0.00,,,0.01,3,TxWx,2013-01-06 15:38:00,
2013-01-06 10:39:00,36.9,34.7,30.07,SSW,193,0.3,0.0,91,0.00,,,0.01,3,TxWx,2013-01-06 15:39:00,
2013-01-06 10:41:00,37.1,34.8,30.07,SW,230,1.5,1.5,91,0.00,,,0.01,3,TxWx,2013-01-06 15:41:00,
2013-01-06 10:43:00,36.7,34.3,30.07,South,176,0.7,1.0,90,0.00,,,0.01,3,TxWx,2013-01-06 15:43:00,
2013-01-06 10:44:00,37.0,34.7,30.07,SSW,200,1.5,2.0,91,0.00,,,0.01,3,TxWx,2013-01-06 15:44:00,
2013-01-06 10:47:00,37.4,34.9,30.07,SW,235,1.1,1.1,90,0.00,,,0.01,3,TxWx,2013-01-06 15:47:00,
2013-01-06 10:48:00,37.3,34.7,30.07,SSW,209,2.3,2.3,90,0.00,,,0.01,3,TxWx,2013-01-06 15:48:00,
2013-01-06 10:49:00,37.0,34.5,30.07,SSW,204,3.0,3.0,90,0.00,,,0.01,3,TxWx,2013-01-06 15:49:00,
2013-01-06 10:52:00,37.4,34.7,30.07,SW,214,1.5,1.5,90,0.00,,,0.01,3,TxWx,2013-01-06 15:52:00,
2013-01-06 10:53:00,37.2,34.5,30.07,SW,215,1.5,1.5,90,0.00,,,0.01,3,TxWx,2013-01-06 15:53:00,
2013-01-06 10:54:00,37.0,34.4,30.07,SSW,204,0.7,1.0,90,0.00,,,0.01,3,TxWx,2013-01-06 15:54:00,
2013-01-06 10:57:00,37.1,34.6,30.07,SSW,212,1.5,1.5,90,0.00,,,0.01,3,TxWx,2013-01-06 15:57:00,
2013-01-06 10:59:00,37.5,34.7,30.07,SSW,204,1.5,1.5,89,0.00,,,0.01,3,TxWx,2013-01-06 15:59:00,
2013-01-06 11:02:00,37.9,34.6,30.06,South,181,0.7,1.0,87,0.00,,,0.01,4,TxWx,2013-01-06 16:02:00,
2013-01-06 11:04:00,37.8,34.4,30.06,South,180,1.9,1.9,87,0.00,,,0.01,3,TxWx,2013-01-06 16:04:00,
2013-01-06 11:07:00,38.3,34.6,30.06,WSW,247,0.0,0.0,86,0.00,,,0.01,4,TxWx,2013-01-06 16:07:00,
2013-01-06 11:09:00,38.2,34.5,30.06,SW,230,0.3,0.0,86,0.00,,,0.01,4,TxWx,2013-01-06 16:09:00,
2013-01-06 11:12:00,38.1,34.3,30.06,SSW,197,1.9,1.9,86,0.00,,,0.01,4,TxWx,2013-01-06 16:12:00,
2013-01-06 11:14:00,38.6,34.8,30.06,West,273,0.3,0.0,86,0.00,,,0.01,4,TxWx,2013-01-06 16:14:00,
2013-01-06 11:17:00,38.7,34.8,30.06,NNE,31,0.0,0.0,85,0.00,,,0.01,5,TxWx,2013-01-06 16:17:00,
2013-01-06 11:19:00,38.6,34.9,30.06,WNW,292,0.7,0.0,86,0.00,,,0.01,5,TxWx,2013-01-06 16:19:00,
2013-01-06 11:23:00,38.6,34.9,30.06,SW,219,1.5,1.5,86,0.00,,,0.01,8,TxWx,2013-01-06 16:23:00,
2013-01-06 11:24:00,38.6,34.8,30.06,SW,217,0.7,1.0,86,0.00,,,0.01,8,TxWx,2013-01-06 16:24:00,
2013-01-06 11:28:00,38.9,35.1,30.06,SSW,211,0.7,1.0,86,0.00,,,0.01,13,TxWx,2013-01-06 16:28:00,
2013-01-06 11:29:00,38.9,35.0,30.06,SSW,213,1.5,1.5,86,0.00,,,0.01,13,TxWx,2013-01-06 16:29:00,
2013-01-06 11:30:00,38.9,35.0,30.06,SSW,195,2.6,2.6,85,0.00,,,0.01,13,TxWx,2013-01-06 16:30:00,
2013-01-06 11:33:00,39.2,35.2,30.06,WNW,302,0.0,0.0,85,0.00,,,0.01,8,TxWx,2013-01-06 16:33:00,
2013-01-06 11:34:00,39.3,35.3,30.06,SSW,211,1.9,1.9,85,0.00,,,0.01,7,TxWx,2013-01-06 16:34:00,
2013-01-06 11:35:00,39.2,35.3,30.06,South,176,1.1,1.1,85,0.00,,,0.01,14,TxWx,2013-01-06 16:35:00,
2013-01-06 11:38:00,39.4,35.3,30.06,SW,215,1.5,1.5,85,0.00,,,0.01,18,TxWx,2013-01-06 16:38:00,
2013-01-06 11:39:00,39.5,35.4,30.06,SW,218,0.7,1.0,85,0.00,,,0.01,23,TxWx,2013-01-06 16:39:00,
2013-01-06 11:40:00,39.5,35.4,30.06,SW,228,0.7,1.0,85,0.00,,,0.01,20,TxWx,2013-01-06 16:40:00,
2013-01-06 11:43:00,39.6,35.4,30.05,SW,230,0.7,1.0,84,0.00,,,0.01,19,TxWx,2013-01-06 16:43:00,
2013-01-06 11:45:00,39.8,35.5,30.05,SW,226,0.7,1.0,84,0.00,,,0.01,16,TxWx,2013-01-06 16:45:00,
2013-01-06 11:49:00,40.0,35.7,30.05,SSW,202,0.0,0.0,84,0.00,,,0.01,6,TxWx,2013-01-06 16:49:00,
2013-01-06 11:50:00,40.1,35.7,30.05,West,274,1.5,2.0,84,0.00,,,0.01,6,TxWx,2013-01-06 16:50:00,
2013-01-06 11:54:00,39.9,35.5,30.05,SW,219,0.7,0.0,83,0.00,,,0.01,9,TxWx,2013-01-06 16:54:00,
2013-01-06 11:55:00,40.0,35.5,30.05,SSW,201,0.7,1.0,83,0.00,,,0.01,10,TxWx,2013-01-06 16:55:00,
2013-01-06 11:59:00,40.2,35.4,30.05,WSW,239,0.7,1.0,83,0.00,,,0.01,8,TxWx,2013-01-06 16:59:00,
2013-01-06 12:00:00,40.3,35.4,30.05,SW,226,1.1,1.1,82,0.00,,,0.01,8,TxWx,2013-01-06 17:00:00,
2013-01-06 12:05:00,40.3,35.6,30.05,SW,229,1.1,1.1,82,0.00,,,0.01,10,TxWx,2013-01-06 17:05:00,
2013-01-06 12:10:00,40.4,35.4,30.04,SW,215,1.1,1.1,82,0.00,,,0.01,7,TxWx,2013-01-06 17:10:00,
2013-01-06 12:11:00,40.4,35.5,30.04,SW,220,0.3,0.0,82,0.00,,,0.01,7,TxWx,2013-01-06 17:11:00,
2013-01-06 12:15:00,40.6,35.4,30.04,WSW,248,0.7,0.0,81,0.00,,,0.01,14,TxWx,2013-01-06 17:15:00,
2013-01-06 12:16:00,40.6,35.3,30.04,South,169,1.5,1.5,81,0.00,,,0.01,14,TxWx,2013-01-06 17:16:00,
2013-01-06 12:20:00,41.4,34.2,30.04,SW,220,1.9,2.0,75,0.00,,,0.01,11,TxWx,2013-01-06 17:20:00,
2013-01-06 12:21:00,41.5,34.4,30.04,West,264,1.5,1.5,75,0.00,,,0.01,11,TxWx,2013-01-06 17:21:00,
2013-01-06 12:26:00,42.1,32.5,30.03,SW,219,1.1,1.1,68,0.00,,,0.01,11,TxWx,2013-01-06 17:26:00,
2013-01-06 12:31:00,42.4,32.9,30.03,South,172,0.7,1.0,68,0.00,,,0.01,9,TxWx,2013-01-06 17:31:00,
2013-01-06 12:36:00,42.8,32.6,30.03,SW,229,0.7,0.0,67,0.00,,,0.01,30,TxWx,2013-01-06 17:36:00,
2013-01-06 12:41:00,43.4,30.7,30.02,WNW,290,3.0,3.0,60,0.00,,,0.01,18,TxWx,2013-01-06 17:41:00,
2013-01-06 12:46:00,44.0,29.7,30.02,West,273,1.5,2.0,56,0.00,,,0.01,10,TxWx,2013-01-06 17:46:00,
2013-01-06 12:51:00,44.5,28.0,30.02,West,265,2.6,2.6,52,0.00,,,0.01,20,TxWx,2013-01-06 17:51:00,
2013-01-06 12:56:00,44.8,28.5,30.01,WNW,303,3.0,3.0,52,0.00,,,0.01,25,TxWx,2013-01-06 17:56:00,
2013-01-06 12:57:00,44.8,28.5,30.01,SE,144,1.1,1.1,52,0.00,,,0.01,25,TxWx,2013-01-06 17:57:00,
2013-01-06 13:01:00,45.1,28.2,30.01,NW,315,0.7,1.0,51,0.00,,,0.01,34,TxWx,2013-01-06 18:01:00,
2013-01-06 13:02:00,45.0,28.1,30.01,NW,308,0.7,0.0,51,0.00,,,0.01,34,TxWx,2013-01-06 18:02:00,
2013-01-06 13:07:00,45.0,26.6,30.01,West,270,1.5,1.5,48,0.00,,,0.01,43,TxWx,2013-01-06 18:07:00,
2013-01-06 13:12:00,45.0,26.9,30.00,WNW,301,2.3,2.3,48,0.00,,,0.01,25,TxWx,2013-01-06 18:12:00,
2013-01-06 13:13:00,45.0,27.8,30.00,WNW,301,4.2,4.2,50,0.00,,,0.01,17,TxWx,2013-01-06 18:13:00,
2013-01-06 13:17:00,45.4,25.9,30.00,WNW,284,1.1,1.1,46,0.00,,,0.01,56,TxWx,2013-01-06 18:17:00,
2013-01-06 13:18:00,45.8,25.8,30.00,West,271,3.0,3.0,45,0.00,,,0.01,50,TxWx,2013-01-06 18:18:00,
2013-01-06 13:22:00,46.2,25.5,30.00,WNW,301,1.9,1.9,44,0.00,,,0.01,61,TxWx,2013-01-06 18:22:00,
2013-01-06 13:23:00,46.3,25.0,30.00,WNW,303,0.0,0.0,42,0.00,,,0.01,54,TxWx,2013-01-06 18:23:00,
2013-01-06 13:27:00,46.2,25.5,30.00,South,187,1.1,1.1,43,0.00,,,0.01,56,TxWx,2013-01-06 18:27:00,
2013-01-06 13:28:00,46.1,26.3,30.00,NW,320,1.5,1.5,45,0.00,,,0.01,48,TxWx,2013-01-06 18:28:00,
2013-01-06 13:32:00,46.3,25.8,30.00,West,271,2.3,2.3,44,0.00,,,0.01,63,TxWx,2013-01-06 18:32:00,
2013-01-06 13:33:00,46.2,26.0,30.00,SW,216,1.9,1.9,44,0.00,,,0.01,69,TxWx,2013-01-06 18:33:00,
2013-01-06 13:37:00,46.2,25.6,29.99,SSW,199,1.9,1.9,44,0.00,,,0.01,93,TxWx,2013-01-06 18:37:00,
2013-01-06 13:38:00,46.1,25.6,29.99,WNW,303,0.7,1.0,44,0.00,,,0.01,95,TxWx,2013-01-06 18:38:00,
2013-01-06 13:42:00,46.8,24.2,29.99,NNE,26,0.7,0.0,40,0.00,,,0.01,143,TxWx,2013-01-06 18:42:00,
2013-01-06 13:43:00,46.9,26.8,29.99,SW,218,1.9,2.0,45,0.00,,,0.01,145,TxWx,2013-01-06 18:43:00,
2013-01-06 13:47:00,47.1,25.8,29.99,WSW,248,0.7,1.0,43,0.00,,,0.01,157,TxWx,2013-01-06 18:47:00,
2013-01-06 13:48:00,47.1,26.6,29.99,WNW,302,0.7,0.0,44,0.00,,,0.01,159,TxWx,2013-01-06 18:48:00,
2013-01-06 13:49:00,47.1,26.6,29.99,SE,142,1.1,1.1,44,0.00,,,0.01,159,TxWx,2013-01-06 18:49:00,
2013-01-06 13:52:00,47.2,26.1,29.99,SW,217,1.1,1.1,43,0.00,,,0.01,158,TxWx,2013-01-06 18:52:00,
2013-01-06 13:53:00,47.3,25.4,29.99,WSW,241,0.7,0.0,42,0.00,,,0.01,158,TxWx,2013-01-06 18:53:00,
2013-01-06 13:54:00,47.4,25.8,29.99,West,273,1.5,1.5,42,0.00,,,0.01,154,TxWx,2013-01-06 18:54:00,
2013-01-06 13:57:00,47.2,24.3,29.99,South,190,1.9,1.9,40,0.00,,,0.01,148,TxWx,2013-01-06 18:57:00,
2013-01-06 13:59:00,47.2,24.5,29.99,SW,232,1.5,1.5,40,0.00,,,0.01,134,TxWx,2013-01-06 18:59:00,
2013-01-06 14:03:00,47.6,25.1,29.99,WSW,238,1.5,1.5,41,0.00,,,0.01,155,TxWx,2013-01-06 19:03:00,
2013-01-06 14:04:00,47.8,25.6,29.99,South,181,0.7,0.0,41,0.00,,,0.01,155,TxWx,2013-01-06 19:04:00,
2013-01-06 14:08:00,47.6,24.9,29.99,SSW,193,1.1,1.1,40,0.00,,,0.01,155,TxWx,2013-01-06 19:08:00,
2013-01-06 14:09:00,47.8,25.0,29.99,West,276,1.9,1.9,40,0.00,,,0.01,156,TxWx,2013-01-06 19:09:00,
2013-01-06 14:10:00,47.8,25.0,29.99,West,280,0.7,0.0,40,0.00,,,0.01,156,TxWx,2013-01-06 19:10:00,
2013-01-06 14:13:00,47.4,23.7,29.99,WNW,301,2.3,2.3,39,0.00,,,0.01,153,TxWx,2013-01-06 19:13:00,
2013-01-06 14:14:00,47.6,24.5,29.99,WNW,303,1.9,2.0,40,0.00,,,0.01,152,TxWx,2013-01-06 19:14:00,
2013-01-06 14:15:00,47.6,24.5,29.99,WSW,245,1.9,2.0,40,0.00,,,0.01,152,TxWx,2013-01-06 19:15:00,
2013-01-06 14:18:00,47.1,25.7,29.99,South,185,1.9,2.0,42,0.00,,,0.01,152,TxWx,2013-01-06 19:18:00,
2013-01-06 14:19:00,47.3,25.3,29.99,WNW,283,3.0,3.0,41,0.00,,,0.01,150,TxWx,2013-01-06 19:19:00,
2013-01-06 14:20:00,47.3,24.4,29.99,WNW,287,1.5,1.5,40,0.00,,,0.01,150,TxWx,2013-01-06 19:20:00,
2013-01-06 14:23:00,47.8,25.4,29.99,SW,214,3.4,3.4,41,0.00,,,0.01,146,TxWx,2013-01-06 19:23:00,
2013-01-06 14:25:00,47.5,25.2,29.99,NNW,346,1.5,1.5,41,0.00,,,0.01,151,TxWx,2013-01-06 19:25:00,
2013-01-06 14:26:00,47.8,25.8,29.99,WSW,257,1.1,1.1,42,0.00,,,0.01,150,TxWx,2013-01-06 19:26:00,
2013-01-06 14:28:00,47.5,24.7,29.99,West,275,2.3,2.3,40,0.00,,,0.01,141,TxWx,2013-01-06 19:28:00,
2013-01-06 14:30:00,47.1,24.0,29.99,West,265,3.0,3.0,40,0.00,,,0.01,133,TxWx,2013-01-06 19:30:00,
2013-01-06 14:31:00,46.9,23.4,29.99,WNW,300,1.9,1.9,39,0.00,,,0.01,120,TxWx,2013-01-06 19:31:00,
2013-01-06 14:34:00,46.9,22.7,29.99,SW,229,2.3,2.3,38,0.00,,,0.01,92,TxWx,2013-01-06 19:34:00,
2013-01-06 14:35:00,47.0,23.0,29.99,East,81,1.1,1.1,38,0.00,,,0.01,73,TxWx,2013-01-06 19:35:00,
2013-01-06 14:36:00,46.9,23.2,29.99,SW,215,2.3,2.3,38,0.00,,,0.01,72,TxWx,2013-01-06 19:36:00,
2013-01-06 14:39:00,47.1,25.2,29.99,WNW,302,1.1,1.1,42,0.00,,,0.01,60,TxWx,2013-01-06 19:39:00,
2013-01-06 14:40:00,47.1,24.8,29.99,WNW,303,3.4,3.4,41,0.00,,,0.01,47,TxWx,2013-01-06 19:40:00,
2013-01-06 14:44:00,46.5,23.2,29.98,WNW,301,1.5,4.0,39,0.00,,,0.01,24,TxWx,2013-01-06 19:44:00,
2013-01-06 14:45:00,46.4,24.1,29.98,WSW,254,3.0,3.0,41,0.00,,,0.01,24,TxWx,2013-01-06 19:45:00,
2013-01-06 14:49:00,46.2,25.0,29.99,WSW,251,1.5,1.5,43,0.00,,,0.01,20,TxWx,2013-01-06 19:49:00,
2013-01-06 14:51:00,45.8,25.4,29.99,West,265,4.2,4.2,44,0.00,,,0.01,23,TxWx,2013-01-06 19:51:00,
2013-01-06 14:55:00,45.9,24.6,29.99,WNW,291,2.6,4.0,42,0.00,,,0.01,17,TxWx,2013-01-06 19:55:00,
2013-01-06 14:56:00,46.1,24.7,29.99,SW,216,1.5,1.5,42,0.00,,,0.01,18,TxWx,2013-01-06 19:56:00,
2013-01-06 15:00:00,45.7,25.6,29.99,West,264,1.1,1.1,45,0.00,,,0.01,17,TxWx,2013-01-06 20:00:00,
2013-01-06 15:01:00,45.7,25.8,29.99,NNW,347,0.7,1.0,45,0.00,,,0.01,27,TxWx,2013-01-06 20:01:00,
2013-01-06 15:05:00,45.7,23.8,29.99,SW,214,1.5,1.5,41,0.00,,,0.01,48,TxWx,2013-01-06 20:05:00,
2013-01-06 15:07:00,45.7,24.4,29.99,WSW,255,0.7,0.0,42,0.00,,,0.01,50,TxWx,2013-01-06 20:07:00,
2013-01-06 15:11:00,45.2,25.9,29.99,ESE,110,0.7,3.0,46,0.00,,,0.01,36,TxWx,2013-01-06 20:11:00,
2013-01-06 15:12:00,45.2,25.6,29.99,WSW,256,1.1,1.1,45,0.00,,,0.01,36,TxWx,2013-01-06 20:12:00,
2013-01-06 15:13:00,45.2,25.5,29.99,WNW,301,1.1,1.1,45,0.00,,,0.01,48,TxWx,2013-01-06 20:13:00,
2013-01-06 15:16:00,44.5,29.5,29.99,NNW,334,2.6,2.6,55,0.00,,,0.01,24,TxWx,2013-01-06 20:16:00,
2013-01-06 15:17:00,44.1,30.2,29.99,NNE,16,5.3,5.3,57,0.00,,,0.01,24,TxWx,2013-01-06 20:17:00,
2013-01-06 15:18:00,43.5,30.2,30.00,NNW,343,3.0,3.0,59,0.00,,,0.01,29,TxWx,2013-01-06 20:18:00,
2013-01-06 15:21:00,42.5,30.7,30.00,NW,317,0.3,0.0,62,0.00,,,0.01,10,TxWx,2013-01-06 20:21:00,
2013-01-06 15:22:00,42.2,30.7,30.00,WNW,303,1.9,1.9,63,0.00,,,0.01,10,TxWx,2013-01-06 20:22:00,
2013-01-06 15:23:00,42.0,31.1,30.01,NW,313,2.3,2.3,64,0.00,,,0.01,12,TxWx,2013-01-06 20:23:00,
2013-01-06 15:26:00,41.8,30.6,30.01,NNE,30,4.2,4.2,64,0.00,,,0.01,9,TxWx,2013-01-06 20:26:00,
2013-01-06 15:27:00,41.4,30.9,30.01,NE,42,2.3,2.3,65,0.00,,,0.01,11,TxWx,2013-01-06 20:27:00,
2013-01-06 15:28:00,41.3,31.0,30.01,NNE,16,3.8,4.0,66,0.00,,,0.01,12,TxWx,2013-01-06 20:28:00,
2013-01-06 15:32:00,40.6,31.1,30.01,SSW,205,0.7,0.0,68,0.00,,,0.01,9,TxWx,2013-01-06 20:32:00,
2013-01-06 15:33:00,40.4,30.9,30.01,SSW,212,2.6,3.0,68,0.00,,,0.01,9,TxWx,2013-01-06 20:33:00,
2013-01-06 15:34:00,40.1,31.0,30.01,SW,215,1.5,1.5,69,0.00,,,0.01,8,TxWx,2013-01-06 20:34:00,
2013-01-06 15:37:00,39.9,31.4,30.01,SSW,213,1.1,1.1,71,0.00,,,0.01,9,TxWx,2013-01-06 20:37:00,
2013-01-06 15:38:00,39.7,31.5,30.01,SSE,162,0.3,0.0,71,0.00,,,0.01,9,TxWx,2013-01-06 20:38:00,
2013-01-06 15:39:00,39.7,31.6,30.02,South,180,0.3,0.0,72,0.00,,,0.01,7,TxWx,2013-01-06 20:39:00,
2013-01-06 15:42:00,39.4,31.7,30.02,SSW,200,1.1,1.1,73,0.00,,,0.01,8,TxWx,2013-01-06 20:42:00,
2013-01-06 15:43:00,39.3,31.6,30.02,SSE,152,1.5,1.5,73,0.00,,,0.01,8,TxWx,2013-01-06 20:43:00,
2013-01-06 15:44:00,39.3,31.7,30.02,SW,215,1.1,1.1,73,0.00,,,0.01,7,TxWx,2013-01-06 20:44:00,
2013-01-06 15:47:00,39.0,31.7,30.01,WSW,242,1.5,1.5,74,0.00,,,0.01,5,TxWx,2013-01-06 20:47:00,
2013-01-06 15:48:00,39.0,31.8,30.01,West,270,0.7,1.0,75,0.00,,,0.01,6,TxWx,2013-01-06 20:48:00,
2013-01-06 15:49:00,38.8,31.7,30.01,SW,234,1.1,1.1,75,0.00,,,0.01,6,TxWx,2013-01-06 20:49:00,
2013-01-06 15:52:00,38.8,31.8,30.01,WSW,244,0.7,0.0,75,0.00,,,0.01,6,TxWx,2013-01-06 20:52:00,
2013-01-06 15:53:00,38.8,31.8,30.01,WSW,245,0.7,1.0,75,0.00,,,0.01,6,TxWx,2013-01-06 20:53:00,
2013-01-06 15:54:00,38.7,31.8,30.01,WSW,239,0.7,1.0,75,0.00,,,0.01,5,TxWx,2013-01-06 20:54:00,
2013-01-06 15:57:00,38.5,31.6,30.01,West,265,0.7,1.0,76,0.00,,,0.01,5,TxWx,2013-01-06 20:57:00,
2013-01-06 15:58:00,38.4,31.5,30.01,WSW,255,1.9,1.9,76,0.00,,,0.01,4,TxWx,2013-01-06 20:58:00,
2013-01-06 15:59:00,38.2,31.5,30.01,WSW,252,0.7,1.0,76,0.00,,,0.01,4,TxWx,2013-01-06 20:59:00,
2013-01-06 16:01:00,38.2,31.6,30.01,South,183,1.5,1.5,76,0.00,,,0.01,4,TxWx,2013-01-06 21:01:00,
2013-01-06 16:03:00,38.1,31.7,30.01,SW,220,1.9,1.9,77,0.00,,,0.01,3,TxWx,2013-01-06 21:03:00,
2013-01-06 16:04:00,38.1,31.7,30.01,West,265,1.5,1.5,77,0.00,,,0.01,3,TxWx,2013-01-06 21:04:00,
2013-01-06 16:06:00,37.9,31.8,30.02,SW,215,1.5,1.5,78,0.00,,,0.01,3,TxWx,2013-01-06 21:06:00,
2013-01-06 16:08:00,37.9,31.8,30.02,SW,219,0.7,0.0,78,0.00,,,0.01,3,TxWx,2013-01-06 21:08:00,
2013-01-06 16:09:00,37.9,31.8,30.02,South,187,0.7,0.0,78,0.00,,,0.01,3,TxWx,2013-01-06 21:09:00,
2013-01-06 16:12:00,38.0,32.0,30.01,WSW,241,0.3,0.0,78,0.00,,,0.01,3,TxWx,2013-01-06 21:12:00,
2013-01-06 16:13:00,38.0,32.0,30.01,SSW,205,1.1,1.1,78,0.00,,,0.01,3,TxWx,2013-01-06 21:13:00,
2013-01-06 16:14:00,37.9,31.9,30.01,WSW,253,0.7,0.0,78,0.00,,,0.01,3,TxWx,2013-01-06 21:14:00,
2013-01-06 16:17:00,37.7,31.8,30.01,WSW,240,2.6,2.6,79,0.00,,,0.01,3,TxWx,2013-01-06 21:17:00,
2013-01-06 16:18:00,37.7,31.9,30.01,SW,219,0.3,0.0,79,0.00,,,0.01,3,TxWx,2013-01-06 21:18:00,
2013-01-06 16:19:00,37.7,32.0,30.01,South,174,1.1,1.1,79,0.00,,,0.01,3,TxWx,2013-01-06 21:19:00,
2013-01-06 16:22:00,37.6,32.0,30.01,SW,231,0.7,0.0,79,0.00,,,0.01,3,TxWx,2013-01-06 21:22:00,
2013-01-06 16:23:00,37.6,32.0,30.01,SSW,211,2.3,3.0,80,0.00,,,0.01,3,TxWx,2013-01-06 21:23:00,
2013-01-06 16:24:00,37.5,32.0,30.01,SSW,194,2.6,2.6,80,0.00,,,0.01,3,TxWx,2013-01-06 21:24:00,
2013-01-06 16:27:00,37.5,32.0,30.01,West,271,1.1,1.1,80,0.00,,,0.01,3,TxWx,2013-01-06 21:27:00,
2013-01-06 16:28:00,37.3,31.7,30.01,West,267,0.7,0.0,80,0.00,,,0.01,3,TxWx,2013-01-06 21:28:00,
2013-01-06 16:29:00,37.1,31.6,30.01,SW,215,1.1,1.1,80,0.00,,,0.01,3,TxWx,2013-01-06 21:29:00,
2013-01-06 16:30:00,37.0,31.6,30.02,SW,214,1.1,1.1,80,0.00,,,0.01,3,TxWx,2013-01-06 21:30:00,
2013-01-06 16:32:00,37.0,31.8,30.02,WNW,291,2.3,2.3,81,0.00,,,0.01,3,TxWx,2013-01-06 21:32:00,
2013-01-06 16:34:00,36.8,31.7,30.02,WSW,251,1.1,1.1,81,0.00,,,0.01,3,TxWx,2013-01-06 21:34:00,
2013-01-06 16:35:00,36.8,31.8,30.02,SW,230,1.1,1.1,81,0.00,,,0.01,4,TxWx,2013-01-06 21:35:00,
2013-01-06 16:37:00,36.8,31.9,30.02,South,185,0.7,0.0,81,0.00,,,0.01,4,TxWx,2013-01-06 21:37:00,
2013-01-06 16:39:00,36.8,31.9,30.02,SW,236,1.5,1.5,82,0.00,,,0.01,4,TxWx,2013-01-06 21:39:00,
2013-01-06 16:40:00,36.8,31.9,30.02,SW,218,1.5,1.5,82,0.00,,,0.01,5,TxWx,2013-01-06 21:40:00,
2013-01-06 16:43:00,36.8,32.0,30.02,WSW,252,0.3,0.0,82,0.00,,,0.01,5,TxWx,2013-01-06 21:43:00,
2013-01-06 16:44:00,36.8,32.0,30.02,WSW,249,0.3,0.0,82,0.00,,,0.01,5,TxWx,2013-01-06 21:44:00,
2013-01-06 16:45:00,36.7,31.9,30.02,WSW,249,0.7,0.0,82,0.00,,,0.01,5,TxWx,2013-01-06 21:45:00,
2013-01-06 16:48:00,36.4,31.7,30.02,WSW,244,1.1,1.1,82,0.00,,,0.01,5,TxWx,2013-01-06 21:48:00,
2013-01-06 16:49:00,36.4,31.8,30.02,SW,234,0.7,1.0,83,0.00,,,0.01,5,TxWx,2013-01-06 21:49:00,
2013-01-06 16:50:00,36.3,31.8,30.02,SW,224,1.1,1.1,83,0.00,,,0.01,5,TxWx,2013-01-06 21:50:00,
2013-01-06 16:53:00,36.3,31.9,30.02,SW,233,0.0,0.0,83,0.00,,,0.01,4,TxWx,2013-01-06 21:53:00,
2013-01-06 16:54:00,36.2,31.8,30.02,WSW,239,0.3,0.0,83,0.00,,,0.01,3,TxWx,2013-01-06 21:54:00,
2013-01-06 16:55:00,36.1,31.8,30.02,WSW,248,0.3,0.0,84,0.00,,,0.01,3,TxWx,2013-01-06 21:55:00,
2013-01-06 16:58:00,36.0,31.7,30.02,West,260,0.0,0.0,84,0.00,,,0.01,3,TxWx,2013-01-06 21:58:00,
2013-01-06 16:59:00,35.9,31.7,30.02,West,270,0.0,0.0,84,0.00,,,0.01,3,TxWx,2013-01-06 21:59:00,
2013-01-06 17:01:00,35.9,31.7,30.02,West,271,0.0,0.0,84,0.00,,,0.01,3,TxWx,2013-01-06 22:01:00,
2013-01-06 17:03:00,35.5,31.5,30.01,West,269,0.0,0.0,85,0.00,,,0.01,2,TxWx,2013-01-06 22:03:00,
2013-01-06 17:04:00,35.4,31.5,30.01,SW,224,0.0,0.0,85,0.00,,,0.01,2,TxWx,2013-01-06 22:04:00,
2013-01-06 17:05:00,35.3,31.4,30.01,SW,224,0.0,0.0,85,0.00,,,0.01,2,TxWx,2013-01-06 22:05:00,
2013-01-06 17:06:00,35.2,31.4,30.01,SSW,211,0.3,0.0,85,0.00,,,0.01,2,TxWx,2013-01-06 22:06:00,
2013-01-06 17:08:00,35.1,31.4,30.02,SSW,211,0.0,0.0,86,0.00,,,0.01,2,TxWx,2013-01-06 22:08:00,
2013-01-06 17:09:00,35.1,31.5,30.02,SSW,196,0.0,0.0,86,0.00,,,0.01,2,TxWx,2013-01-06 22:09:00,
2013-01-06 17:10:00,35.1,31.5,30.02,SSW,196,0.0,0.0,86,0.00,,,0.01,2,TxWx,2013-01-06 22:10:00,
2013-01-06 17:11:00,35.1,31.6,30.02,SSW,196,0.0,0.0,86,0.00,,,0.01,2,TxWx,2013-01-06 22:11:00,
2013-01-06 17:13:00,35.1,31.6,30.02,SSW,212,0.3,0.0,87,0.00,,,0.01,2,TxWx,2013-01-06 22:13:00,
2013-01-06 17:15:00,35.0,31.6,30.02,SW,224,0.0,0.0,87,0.00,,,0.01,1,TxWx,2013-01-06 22:15:00,
2013-01-06 17:16:00,34.9,31.4,30.02,SW,223,0.0,0.0,87,0.00,,,0.01,1,TxWx,2013-01-06 22:16:00,
2013-01-06 17:18:00,34.8,31.5,30.02,SSW,199,0.0,0.0,87,0.00,,,0.01,2,TxWx,2013-01-06 22:18:00,
2013-01-06 17:20:00,34.7,31.4,30.02,SW,217,0.0,0.0,87,0.00,,,0.01,2,TxWx,2013-01-06 22:20:00,
2013-01-06 17:21:00,34.6,31.3,30.02,SW,234,0.0,0.0,87,0.00,,,0.01,2,TxWx,2013-01-06 22:21:00,
2013-01-06 17:23:00,34.3,31.2,30.02,SW,217,0.0,0.0,88,0.00,,,0.01,2,TxWx,2013-01-06 22:23:00,
2013-01-06 17:25:00,34.3,31.3,30.02,SSW,205,0.7,0.0,88,0.00,,,0.01,1,TxWx,2013-01-06 22:25:00,
2013-01-06 17:26:00,34.3,31.3,30.02,SW,217,0.0,0.0,88,0.00,,,0.01,1,TxWx,2013-01-06 22:26:00,
2013-01-06 17:28:00,34.2,31.1,30.02,SW,230,0.0,0.0,88,0.00,,,0.01,1,TxWx,2013-01-06 22:28:00,
2013-01-06 17:30:00,34.1,31.1,30.02,SW,231,0.3,0.0,88,0.00,,,0.01,1,TxWx,2013-01-06 22:30:00,
2013-01-06 17:31:00,34.1,31.1,30.02,SW,232,0.0,0.0,88,0.00,,,0.01,1,TxWx,2013-01-06 22:31:00,
2013-01-06 17:33:00,34.0,31.0,30.02,SW,231,0.3,0.0,88,0.00,,,0.01,1,TxWx,2013-01-06 22:33:00,
2013-01-06 17:35:00,34.0,30.9,30.02,SSW,209,1.1,1.1,88,0.00,,,0.01,1,TxWx,2013-01-06 22:35:00,
2013-01-06 17:36:00,34.0,31.0,30.02,SSW,202,1.1,1.1,88,0.00,,,0.01,1,TxWx,2013-01-06 22:36:00,
2013-01-06 17:37:00,34.0,31.0,30.02,SSW,204,1.1,1.1,88,0.00,,,0.01,1,TxWx,2013-01-06 22:37:00,
2013-01-06 17:38:00,34.0,31.0,30.02,SSW,199,1.1,1.1,88,0.00,,,0.01,1,TxWx,2013-01-06 22:38:00,
2013-01-06 17:40:00,34.1,30.9,30.03,SSW,205,1.1,1.1,88,0.00,,,0.01,0,TxWx,2013-01-06 22:40:00,
2013-01-06 17:41:00,34.1,30.9,30.03,SSW,200,1.1,1.1,87,0.00,,,0.01,0,TxWx,2013-01-06 22:41:00,
2013-01-06 17:43:00,34.3,31.3,30.03,South,191,1.1,1.1,88,0.00,,,0.01,0,TxWx,2013-01-06 22:43:00,
2013-01-06 17:44:00,34.4,31.3,30.03,SSW,199,0.7,0.0,88,0.00,,,0.01,0,TxWx,2013-01-06 22:44:00,
2013-01-06 17:45:00,34.4,31.5,30.03,SW,217,0.7,0.0,89,0.00,,,0.01,0,TxWx,2013-01-06 22:45:00,
2013-01-06 17:46:00,34.5,31.7,30.03,SW,222,1.1,1.1,89,0.00,,,0.01,0,TxWx,2013-01-06 22:46:00,
2013-01-06 17:48:00,34.4,31.4,30.03,WSW,240,0.3,0.0,88,0.00,,,0.01,0,TxWx,2013-01-06 22:48:00,
2013-01-06 17:49:00,34.2,31.2,30.03,SW,234,0.7,1.0,88,0.00,,,0.01,0,TxWx,2013-01-06 22:49:00,
2013-01-06 17:51:00,34.1,31.0,30.03,SSW,207,1.5,1.5,88,0.00,,,0.01,0,TxWx,2013-01-06 22:51:00,
2013-01-06 17:53:00,34.1,31.0,30.03,SW,217,1.5,1.5,88,0.00,,,0.01,0,TxWx,2013-01-06 22:53:00,
2013-01-06 17:54:00,34.0,30.9,30.03,SW,225,1.1,1.1,88,0.00,,,0.01,0,TxWx,2013-01-06 22:54:00,
2013-01-06 17:56:00,33.8,31.1,30.03,SW,214,1.5,1.5,89,0.00,,,0.01,0,TxWx,2013-01-06 22:56:00,
2013-01-06 17:58:00,33.9,31.4,30.04,WSW,238,0.0,0.0,90,0.00,,,0.01,0,TxWx,2013-01-06 22:58:00,
2013-01-06 17:59:00,33.7,31.1,30.04,West,268,0.0,0.0,89,0.00,,,0.01,0,TxWx,2013-01-06 22:59:00,
2013-01-06 18:01:00,33.6,31.0,30.04,SW,216,0.7,0.0,90,0.00,,,0.01,0,TxWx,2013-01-06 23:01:00,
2013-01-06 18:02:00,33.6,31.0,30.04,SW,216,0.7,0.0,90,0.00,,,0.01,0,TxWx,2013-01-06 23:02:00,
2013-01-06 18:04:00,33.3,30.9,30.04,SW,224,0.3,0.0,90,0.00,,,0.01,0,TxWx,2013-01-06 23:04:00,
2013-01-06 18:07:00,33.3,31.0,30.04,West,268,0.0,0.0,90,0.00,,,0.01,0,TxWx,2013-01-06 23:07:00,
2013-01-06 18:09:00,33.3,31.1,30.05,North,1,0.7,1.0,91,0.00,,,0.01,0,TxWx,2013-01-06 23:09:00,
2013-01-06 18:12:00,33.4,31.2,30.05,East,92,2.6,2.6,91,0.00,,,0.01,0,TxWx,2013-01-06 23:12:00,
2013-01-06 18:14:00,33.5,31.1,30.05,North,0,0.0,0.0,90,0.00,,,0.01,0,TxWx,2013-01-06 23:14:00,
2013-01-06 18:17:00,33.5,31.0,30.05,WSW,252,0.7,1.0,90,0.00,,,0.01,0,TxWx,2013-01-06 23:17:00,
2013-01-06 18:19:00,33.5,30.9,30.05,South,170,0.3,0.0,89,0.00,,,0.01,0,TxWx,2013-01-06 23:19:00,
2013-01-06 18:22:00,33.4,30.7,30.05,SSE,159,1.5,1.5,89,0.00,,,0.01,0,TxWx,2013-01-06 23:22:00,
2013-01-06 18:24:00,33.1,30.5,30.06,ESE,107,1.9,1.9,89,0.00,,,0.01,0,TxWx,2013-01-06 23:24:00,
2013-01-06 18:25:00,33.0,30.5,30.06,SE,134,1.5,1.5,90,0.00,,,0.01,0,TxWx,2013-01-06 23:25:00,
2013-01-06 18:27:00,33.1,30.6,30.06,South,186,0.3,0.0,90,0.00,,,0.01,0,TxWx,2013-01-06 23:27:00,
2013-01-06 18:29:00,32.8,30.4,30.06,West,281,0.7,1.0,90,0.00,,,0.01,0,TxWx,2013-01-06 23:29:00,
2013-01-06 18:30:00,32.8,30.4,30.06,SW,234,1.1,1.1,90,0.00,,,0.01,0,TxWx,2013-01-06 23:30:00,
2013-01-06 18:32:00,32.6,30.3,30.06,SSE,168,1.5,1.5,90,0.00,,,0.01,0,TxWx,2013-01-06 23:32:00,
2013-01-06 18:33:00,32.5,30.2,30.06,South,186,0.7,1.0,91,0.00,,,0.01,0,TxWx,2013-01-06 23:33:00,
2013-01-06 18:35:00,32.5,30.2,30.06,WNW,284,0.7,0.0,91,0.00,,,0.01,0,TxWx,2013-01-06 23:35:00,
2013-01-06 18:37:00,32.5,30.2,30.06,West,264,0.7,0.0,91,0.00,,,0.01,0,TxWx,2013-01-06 23:37:00,
2013-01-06 18:38:00,32.5,30.2,30.06,NW,308,0.0,0.0,91,0.00,,,0.01,0,TxWx,2013-01-06 23:38:00,
2013-01-06 18:40:00,32.4,30.1,30.06,South,188,2.3,2.3,91,0.00,,,0.01,0,TxWx,2013-01-06 23:40:00,
2013-01-06 18:43:00,32.4,30.2,30.06,SE,138,0.3,0.0,91,0.00,,,0.01,0,TxWx,2013-01-06 23:43:00,
2013-01-06 18:45:00,32.3,30.1,30.07,SSW,193,1.5,1.5,91,0.00,,,0.01,0,TxWx,2013-01-06 23:45:00,
2013-01-06 18:46:00,32.3,30.1,30.07,South,175,0.3,0.0,91,0.00,,,0.01,0,TxWx,2013-01-06 23:46:00,
2013-01-06 18:48:00,32.4,30.1,30.07,SSW,213,0.3,0.0,91,0.00,,,0.01,0,TxWx,2013-01-06 23:48:00,
2013-01-06 18:50:00,32.5,30.2,30.07,WSW,241,0.0,0.0,91,0.00,,,0.01,0,TxWx,2013-01-06 23:50:00,
2013-01-06 18:51:00,32.5,30.3,30.07,WSW,241,0.0,0.0,91,0.00,,,0.01,0,TxWx,2013-01-06 23:51:00,
2013-01-06 18:53:00,32.3,30.0,30.07,SSW,195,4.6,4.6,91,0.00,,,0.01,0,TxWx,2013-01-06 23:53:00,
2013-01-06 18:55:00,32.2,29.9,30.07,East,91,0.3,0.0,90,0.00,,,0.01,0,TxWx,2013-01-06 23:55:00,
2013-01-06 18:56:00,32.3,29.9,30.07,WNW,303,0.0,0.0,90,0.00,,,0.01,0,TxWx,2013-01-06 23:56:00,
2013-01-06 18:58:00,32.3,29.9,30.07,South,189,0.3,0.0,90,0.00,,,0.01,0,TxWx,2013-01-06 23:58:00,
2013-01-06 19:01:00,32.2,29.8,30.07,SSE,166,1.9,1.9,90,0.00,,,0.01,0,TxWx,2013-01-07 00:01:00,
2013-01-06 19:03:00,32.2,29.7,30.08,West,260,1.1,1.1,90,0.00,,,0.01,0,TxWx,2013-01-07 00:03:00,
2013-01-06 19:06:00,32.3,29.7,30.08,South,174,0.0,0.0,90,0.00,,,0.01,0,TxWx,2013-01-07 00:06:00,
2013-01-06 19:08:00,32.1,29.4,30.08,SSE,154,2.3,2.3,89,0.00,,,0.01,0,TxWx,2013-01-07 00:08:00,
2013-01-06 19:11:00,32.0,29.3,30.08,SSE,161,0.0,0.0,89,0.00,,,0.01,0,TxWx,2013-01-07 00:11:00,
2013-01-06 19:13:00,31.9,29.3,30.08,SSW,199,1.9,2.0,89,0.00,,,0.01,0,TxWx,2013-01-07 00:13:00,
2013-01-06 19:16:00,31.9,29.3,30.08,SSW,211,1.5,1.5,90,0.00,,,0.01,0,TxWx,2013-01-07 00:16:00,
2013-01-06 19:18:00,32.0,29.3,30.08,South,184,0.0,0.0,89,0.00,,,0.01,0,TxWx,2013-01-07 00:18:00,
2013-01-06 19:21:00,32.0,29.3,30.08,WNW,282,0.0,0.0,89,0.00,,,0.01,0,TxWx,2013-01-07 00:21:00,
2013-01-06 19:22:00,32.0,29.3,30.08,WSW,250,0.0,0.0,89,0.00,,,0.01,0,TxWx,2013-01-07 00:22:00,
2013-01-06 19:23:00,31.8,29.0,30.07,SSW,199,0.7,1.0,89,0.00,,,0.01,0,TxWx,2013-01-07 00:23:00,
2013-01-06 19:24:00,31.8,29.0,30.07,SSW,199,0.7,0.0,89,0.00,,,0.01,0,TxWx,2013-01-07 00:24:00,
2013-01-06 19:26:00,31.7,29.0,30.07,SW,217,0.0,0.0,89,0.00,,,0.01,0,TxWx,2013-01-07 00:26:00,
2013-01-06 19:27:00,31.7,29.0,30.07,SW,225,0.0,0.0,89,0.00,,,0.01,0,TxWx,2013-01-07 00:27:00,
2013-01-06 19:29:00,31.6,29.0,30.07,SSW,209,0.3,0.0,89,0.00,,,0.01,0,TxWx,2013-01-07 00:29:00,
2013-01-06 19:31:00,31.6,29.0,30.07,SSW,198,1.1,1.1,90,0.00,,,0.01,0,TxWx,2013-01-07 00:31:00,
2013-01-06 19:32:00,31.7,29.0,30.07,SSW,210,3.4,3.4,89,0.00,,,0.01,0,TxWx,2013-01-07 00:32:00,
2013-01-06 19:34:00,31.9,29.2,30.07,SSW,213,2.3,2.3,89,0.00,,,0.01,0,TxWx,2013-01-07 00:34:00,
2013-01-06 19:36:00,31.9,29.0,30.07,SSE,165,0.7,1.0,88,0.00,,,0.01,0,TxWx,2013-01-07 00:36:00,
2013-01-06 19:37:00,31.9,29.1,30.08,South,176,0.7,0.0,89,0.00,,,0.01,0,TxWx,2013-01-07 00:37:00,
2013-01-06 19:39:00,31.9,29.0,30.08,WSW,246,0.0,0.0,88,0.00,,,0.01,0,TxWx,2013-01-07 00:39:00,
2013-01-06 19:42:00,31.9,29.1,30.08,West,268,0.0,0.0,89,0.00,,,0.01,0,TxWx,2013-01-07 00:42:00,
2013-01-06 19:44:00,32.0,29.1,30.08,WSW,252,0.0,0.0,89,0.00,,,0.01,0,TxWx,2013-01-07 00:44:00,
2013-01-06 19:47:00,31.8,28.9,30.08,West,263,0.3,0.0,88,0.00,,,0.01,0,TxWx,2013-01-07 00:47:00,
2013-01-06 19:49:00,31.6,28.8,30.08,SSW,200,0.0,0.0,89,0.00,,,0.01,0,TxWx,2013-01-07 00:49:00,
2013-01-06 19:52:00,31.8,29.0,30.07,WSW,250,0.0,0.0,89,0.00,,,0.01,0,TxWx,2013-01-07 00:52:00,
2013-01-06 19:54:00,31.6,28.7,30.07,WSW,249,0.0,0.0,88,0.00,,,0.01,0,TxWx,2013-01-07 00:54:00,
2013-01-06 19:57:00,31.4,28.6,30.07,West,278,0.3,0.0,89,0.00,,,0.01,0,TxWx,2013-01-07 00:57:00,
2013-01-06 19:59:00,31.1,28.3,30.07,West,273,0.0,0.0,89,0.00,,,0.01,0,TxWx,2013-01-07 00:59:00,
2013-01-06 20:02:00,31.0,28.5,30.07,West,263,0.0,0.0,90,0.00,,,0.01,0,TxWx,2013-01-07 01:02:00,
2013-01-06 20:03:00,30.9,28.4,30.07,West,263,0.0,0.0,90,0.00,,,0.01,0,TxWx,2013-01-07 01:03:00,
2013-01-06 20:04:00,30.8,28.3,30.07,West,263,0.0,0.0,90,0.00,,,0.01,0,TxWx,2013-01-07 01:04:00,
2013-01-06 20:08:00,30.9,28.6,30.07,SW,227,0.0,0.0,91,0.00,,,0.01,0,TxWx,2013-01-07 01:08:00,
2013-01-06 20:09:00,30.9,28.6,30.07,West,272,0.0,0.0,91,0.00,,,0.01,0,TxWx,2013-01-07 01:09:00,
2013-01-06 20:10:00,30.8,28.4,30.07,West,274,0.0,0.0,90,0.00,,,0.01,0,TxWx,2013-01-07 01:10:00,
2013-01-06 20:13:00,30.6,28.3,30.08,West,277,0.0,0.0,90,0.00,,,0.01,0,TxWx,2013-01-07 01:13:00,
2013-01-06 20:14:00,30.6,28.3,30.08,West,277,0.0,0.0,91,0.00,,,0.01,0,TxWx,2013-01-07 01:14:00,
2013-01-06 20:15:00,30.5,28.2,30.08,West,272,0.0,0.0,91,0.00,,,0.01,0,TxWx,2013-01-07 01:15:00,
2013-01-06 20:18:00,30.6,28.4,30.08,WSW,252,0.0,0.0,91,0.00,,,0.01,0,TxWx,2013-01-07 01:18:00,
2013-01-06 20:20:00,30.6,28.3,30.08,WNW,303,0.0,0.0,91,0.00,,,0.01,0,TxWx,2013-01-07 01:20:00,
2013-01-06 20:23:00,30.5,28.3,30.08,SSW,208,0.0,0.0,91,0.00,,,0.01,0,TxWx,2013-01-07 01:23:00,
2013-01-06 20:25:00,30.5,28.3,30.08,SSW,202,0.0,0.0,91,0.00,,,0.01,0,TxWx,2013-01-07 01:25:00,
2013-01-06 20:28:00,30.6,28.5,30.08,SSW,194,0.0,0.0,91,0.00,,,0.01,0,TxWx,2013-01-07 01:28:00,
2013-01-06 20:30:00,30.6,28.5,30.08,SSW,194,0.0,0.0,91,0.00,,,0.01,0,TxWx,2013-01-07 01:30:00,
2013-01-06 20:33:00,30.8,28.6,30.08,SE,131,0.0,0.0,91,0.00,,,0.01,0,TxWx,2013-01-07 01:33:00,
2013-01-06 20:34:00,31.0,28.7,30.08,SSE,154,0.0,0.0,91,0.00,,,0.01,0,TxWx,2013-01-07 01:34:00,
2013-01-06 20:35:00,31.0,28.7,30.09,South,176,0.0,0.0,90,0.00,,,0.01,0,TxWx,2013-01-07 01:35:00,
2013-01-06 20:36:00,31.1,28.7,30.09,South,176,0.0,0.0,90,0.00,,,0.01,0,TxWx,2013-01-07 01:36:00,
2013-01-06 20:38:00,31.1,28.6,30.09,South,176,0.0,0.0,90,0.00,,,0.01,0,TxWx,2013-01-07 01:38:00,
2013-01-06 20:39:00,31.1,28.5,30.09,South,176,0.0,0.0,90,0.00,,,0.01,0,TxWx,2013-01-07 01:39:00,
2013-01-06 20:40:00,31.2,28.6,30.09,WSW,243,0.0,0.0,90,0.00,,,0.01,0,TxWx,2013-01-07 01:40:00,
2013-01-06 20:41:00,31.1,28.4,30.09,WSW,243,0.0,0.0,89,0.00,,,0.01,0,TxWx,2013-01-07 01:41:00,
2013-01-06 20:44:00,31.0,28.4,30.08,SSW,205,0.3,0.0,90,0.00,,,0.01,0,TxWx,2013-01-07 01:44:00,
2013-01-06 20:46:00,31.1,28.5,30.08,WSW,241,0.3,0.0,89,0.00,,,0.01,0,TxWx,2013-01-07 01:46:00,
2013-01-06 20:49:00,31.3,28.4,30.08,SSW,210,1.1,1.1,88,0.00,,,0.01,0,TxWx,2013-01-07 01:49:00,
2013-01-06 20:51:00,31.3,28.4,30.09,SSW,208,0.7,1.0,88,0.00,,,0.01,0,TxWx,2013-01-07 01:51:00,
2013-01-06 20:54:00,31.2,28.4,30.09,SSW,207,0.0,0.0,89,0.00,,,0.01,0,TxWx,2013-01-07 01:54:00,
2013-01-06 20:56:00,31.3,28.5,30.09,WSW,244,0.0,0.0,89,0.00,,,0.01,0,TxWx,2013-01-07 01:56:00,
2013-01-06 20:59:00,31.1,28.3,30.09,WSW,244,0.0,0.0,89,0.00,,,0.01,0,TxWx,2013-01-07 01:59:00,
2013-01-06 21:00:00,31.0,28.2,30.09,WSW,244,0.0,0.0,89,0.00,,,0.01,0,TxWx,2013-01-07 02:00:00,
2013-01-06 21:01:00,31.0,28.2,30.09,WSW,245,0.0,0.0,89,0.00,,,0.01,0,TxWx,2013-01-07 02:01:00,
2013-01-06 21:04:00,30.9,28.2,30.09,SSW,210,0.0,0.0,89,0.00,,,0.01,0,TxWx,2013-01-07 02:04:00,
2013-01-06 21:05:00,30.9,28.3,30.09,SSW,210,0.0,0.0,89,0.00,,,0.01,0,TxWx,2013-01-07 02:05:00,
2013-01-06 21:06:00,31.0,28.3,30.09,SW,224,0.0,0.0,89,0.00,,,0.01,0,TxWx,2013-01-07 02:06:00,
2013-01-06 21:10:00,31.1,28.3,30.09,SW,231,0.0,0.0,89,0.00,,,0.01,0,TxWx,2013-01-07 02:10:00,
2013-01-06 21:11:00,31.2,28.3,30.09,SW,226,0.3,0.0,89,0.00,,,0.01,0,TxWx,2013-01-07 02:11:00,
2013-01-06 21:15:00,31.0,28.2,30.09,West,264,0.7,0.0,89,0.00,,,0.01,0,TxWx,2013-01-07 02:15:00,
2013-01-06 21:16:00,30.9,28.2,30.09,West,260,0.0,0.0,89,0.00,,,0.01,0,TxWx,2013-01-07 02:16:00,
2013-01-06 21:17:00,31.0,28.3,30.09,West,277,0.0,0.0,89,0.00,,,0.01,0,TxWx,2013-01-07 02:17:00,
2013-01-06 21:20:00,30.9,28.2,30.09,West,275,0.0,0.0,89,0.00,,,0.01,0,TxWx,2013-01-07 02:20:00,
2013-01-06 21:21:00,30.9,28.2,30.09,WSW,258,0.7,0.0,89,0.00,,,0.01,0,TxWx,2013-01-07 02:21:00,
2013-01-06 21:22:00,30.9,28.3,30.10,West,265,0.7,0.0,89,0.00,,,0.01,0,TxWx,2013-01-07 02:22:00,
2013-01-06 21:25:00,31.7,28.4,30.10,South,187,1.9,1.9,87,0.00,,,0.01,0,TxWx,2013-01-07 02:25:00,
2013-01-06 21:26:00,32.3,28.2,30.10,SW,224,0.3,0.0,84,0.00,,,0.01,0,TxWx,2013-01-07 02:26:00,
2013-01-06 21:27:00,32.4,28.0,30.10,West,260,1.9,1.9,83,0.00,,,0.01,0,TxWx,2013-01-07 02:27:00,
2013-01-06 21:30:00,32.8,27.8,30.10,SW,222,1.1,1.1,81,0.00,,,0.01,0,TxWx,2013-01-07 02:30:00,
2013-01-06 21:31:00,33.0,27.7,30.09,WSW,257,1.1,1.1,80,0.00,,,0.01,0,TxWx,2013-01-07 02:31:00,
2013-01-06 21:33:00,33.1,27.5,30.09,SSW,210,1.1,2.0,79,0.00,,,0.01,0,TxWx,2013-01-07 02:33:00,
2013-01-06 21:35:00,33.3,27.2,30.09,South,191,1.5,1.5,78,0.00,,,0.01,0,TxWx,2013-01-07 02:35:00,
2013-01-06 21:37:00,33.4,27.0,30.09,West,260,0.0,0.0,76,0.00,,,0.01,0,TxWx,2013-01-07 02:37:00,
2013-01-06 21:38:00,33.4,27.0,30.09,SW,219,1.5,1.5,76,0.00,,,0.01,0,TxWx,2013-01-07 02:38:00,
2013-01-06 21:40:00,33.5,26.8,30.10,SSE,154,1.1,1.1,76,0.00,,,0.01,0,TxWx,2013-01-07 02:40:00,
2013-01-06 21:42:00,33.6,26.6,30.10,SSW,200,0.7,0.0,75,0.00,,,0.01,0,TxWx,2013-01-07 02:42:00,
2013-01-06 21:43:00,33.5,26.7,30.10,SSW,205,1.1,1.1,75,0.00,,,0.01,0,TxWx,2013-01-07 02:43:00,
2013-01-06 21:45:00,33.6,26.6,30.10,WSW,245,1.1,1.1,75,0.00,,,0.01,0,TxWx,2013-01-07 02:45:00,
2013-01-06 21:46:00,33.6,26.6,30.10,SW,226,1.1,1.1,75,0.00,,,0.01,0,TxWx,2013-01-07 02:46:00,
2013-01-06 21:47:00,33.6,26.5,30.10,SSE,151,1.1,1.1,74,0.00,,,0.01,0,TxWx,2013-01-07 02:47:00,
2013-01-06 21:48:00,33.7,26.5,30.10,SSW,201,0.3,0.0,74,0.00,,,0.01,0,TxWx,2013-01-07 02:48:00,
2013-01-06 21:51:00,33.7,26.6,30.10,WSW,242,0.0,0.0,75,0.00,,,0.01,0,TxWx,2013-01-07 02:51:00,
2013-01-06 21:52:00,33.5,26.6,30.11,SSW,203,1.1,1.1,75,0.00,,,0.01,0,TxWx,2013-01-07 02:52:00,
2013-01-06 21:53:00,33.5,26.5,30.11,South,185,0.7,0.0,75,0.00,,,0.01,0,TxWx,2013-01-07 02:53:00,
2013-01-06 21:56:00,33.6,26.4,30.11,SSW,205,0.3,0.0,74,0.00,,,0.01,0,TxWx,2013-01-07 02:56:00,
2013-01-06 21:58:00,33.6,26.4,30.11,SSE,164,0.3,0.0,74,0.00,,,0.01,0,TxWx,2013-01-07 02:58:00,
2013-01-06 22:01:00,33.6,26.3,30.11,SE,141,1.1,1.1,74,0.00,,,0.01,0,TxWx,2013-01-07 03:01:00,
2013-01-06 22:03:00,33.7,26.2,30.11,South,189,0.3,0.0,73,0.00,,,0.01,0,TxWx,2013-01-07 03:03:00,
2013-01-06 22:04:00,33.7,26.2,30.11,SE,146,1.5,1.5,73,0.00,,,0.01,0,TxWx,2013-01-07 03:04:00,
2013-01-06 22:06:00,33.8,26.2,30.11,South,175,0.7,0.0,73,0.00,,,0.01,0,TxWx,2013-01-07 03:06:00,
2013-01-06 22:08:00,33.9,26.2,30.11,SSW,207,0.3,0.0,73,0.00,,,0.01,0,TxWx,2013-01-07 03:08:00,
2013-01-06 22:09:00,33.9,26.2,30.11,South,188,0.0,0.0,73,0.00,,,0.01,0,TxWx,2013-01-07 03:09:00,
2013-01-06 22:11:00,33.9,26.2,30.11,South,189,0.7,0.0,73,0.00,,,0.01,0,TxWx,2013-01-07 03:11:00,
2013-01-06 22:12:00,33.9,26.2,30.11,SSW,193,0.7,0.0,73,0.00,,,0.01,0,TxWx,2013-01-07 03:12:00,
2013-01-06 22:13:00,33.8,26.4,30.11,SSW,205,0.7,1.0,73,0.00,,,0.01,0,TxWx,2013-01-07 03:13:00,
2013-01-06 22:14:00,33.8,26.4,30.11,SSW,209,0.0,0.0,73,0.00,,,0.01,0,TxWx,2013-01-07 03:14:00,
2013-01-06 22:16:00,33.8,26.4,30.11,SSW,209,0.7,0.0,73,0.00,,,0.01,0,TxWx,2013-01-07 03:16:00,
2013-01-06 22:17:00,33.7,26.6,30.11,SSW,208,0.0,0.0,74,0.00,,,0.01,0,TxWx,2013-01-07 03:17:00,
2013-01-06 22:19:00,33.7,26.5,30.11,SSW,209,0.0,0.0,74,0.00,,,0.01,0,TxWx,2013-01-07 03:19:00,
2013-01-06 22:21:00,33.8,26.3,30.11,South,177,1.1,1.1,73,0.00,,,0.01,0,TxWx,2013-01-07 03:21:00,
2013-01-06 22:22:00,34.0,26.0,30.11,SSW,192,1.9,1.9,72,0.00,,,0.01,0,TxWx,2013-01-07 03:22:00,
2013-01-06 22:24:00,34.3,25.8,30.11,SSW,206,0.7,1.0,70,0.00,,,0.01,0,TxWx,2013-01-07 03:24:00,
2013-01-06 22:26:00,34.3,26.5,30.11,WSW,251,1.5,1.5,72,0.00,,,0.01,0,TxWx,2013-01-07 03:26:00,
2013-01-06 22:27:00,33.9,26.3,30.11,WSW,250,1.1,1.1,73,0.00,,,0.01,0,TxWx,2013-01-07 03:27:00,
2013-01-06 22:29:00,33.8,26.4,30.11,SSW,208,0.0,0.0,74,0.00,,,0.01,0,TxWx,2013-01-07 03:29:00,
2013-01-06 22:30:00,33.8,26.4,30.11,SSW,203,0.3,0.0,74,0.00,,,0.01,0,TxWx,2013-01-07 03:30:00,
2013-01-06 22:31:00,33.7,26.3,30.11,SW,226,0.0,0.0,74,0.00,,,0.01,0,TxWx,2013-01-07 03:31:00,
2013-01-06 22:32:00,33.6,26.3,30.11,SW,225,0.3,0.0,74,0.00,,,0.01,0,TxWx,2013-01-07 03:32:00,
2013-01-06 22:34:00,33.6,26.2,30.11,SSW,210,0.0,0.0,73,0.00,,,0.01,0,TxWx,2013-01-07 03:34:00,
2013-01-06 22:35:00,33.6,26.1,30.11,SSW,210,1.5,1.5,73,0.00,,,0.01,0,TxWx,2013-01-07 03:35:00,
2013-01-06 22:36:00,33.6,26.1,30.11,SSW,200,0.7,1.0,73,0.00,,,0.01,0,TxWx,2013-01-07 03:36:00,
2013-01-06 22:37:00,33.7,26.0,30.11,SSW,213,2.3,2.3,73,0.00,,,0.01,0,TxWx,2013-01-07 03:37:00,
2013-01-06 22:39:00,33.6,26.5,30.11,SW,214,1.5,1.5,74,0.00,,,0.01,0,TxWx,2013-01-07 03:39:00,
2013-01-06 22:40:00,33.6,26.4,30.11,SW,216,0.3,0.0,74,0.00,,,0.01,0,TxWx,2013-01-07 03:40:00,
2013-01-06 22:41:00,33.7,26.2,30.11,WNW,302,0.0,0.0,73,0.00,,,0.01,0,TxWx,2013-01-07 03:41:00,
2013-01-06 22:42:00,33.6,26.5,30.11,West,281,0.3,0.0,74,0.00,,,0.01,0,TxWx,2013-01-07 03:42:00,
2013-01-06 22:44:00,33.3,26.8,30.12,SW,216,1.1,1.1,76,0.00,,,0.01,0,TxWx,2013-01-07 03:44:00,
2013-01-06 22:45:00,33.3,26.5,30.12,SW,231,0.7,0.0,75,0.00,,,0.01,0,TxWx,2013-01-07 03:45:00,
2013-01-06 22:46:00,33.5,26.3,30.12,South,171,1.9,2.0,74,0.00,,,0.01,0,TxWx,2013-01-07 03:46:00,
2013-01-06 22:47:00,33.4,26.2,30.12,South,188,1.5,1.5,74,0.00,,,0.01,0,TxWx,2013-01-07 03:47:00,
2013-01-06 22:50:00,33.6,26.2,30.12,SSE,161,1.5,1.5,73,0.00,,,0.01,0,TxWx,2013-01-07 03:50:00,
2013-01-06 22:52:00,33.7,25.9,30.12,SW,230,1.5,1.5,72,0.00,,,0.01,0,TxWx,2013-01-07 03:52:00,
2013-01-06 22:53:00,33.7,25.8,30.12,SW,214,0.3,0.0,72,0.00,,,0.01,0,TxWx,2013-01-07 03:53:00,
2013-01-06 22:55:00,33.8,25.7,30.12,SSW,211,0.3,0.0,72,0.00,,,0.01,0,TxWx,2013-01-07 03:55:00,
2013-01-06 22:57:00,33.8,25.7,30.12,SSE,151,0.7,0.0,71,0.00,,,0.01,0,TxWx,2013-01-07 03:57:00,
2013-01-06 22:58:00,33.7,25.8,30.12,South,177,0.7,1.0,72,0.00,,,0.01,0,TxWx,2013-01-07 03:58:00,
2013-01-06 23:00:00,33.6,25.6,30.12,South,178,0.7,0.0,72,0.00,,,0.00,0,TxWx,2013-01-07 04:00:00,
2013-01-06 23:02:00,33.6,25.6,30.12,SSW,195,0.3,0.0,72,0.00,,,0.00,0,TxWx,2013-01-07 04:02:00,
2013-01-06 23:03:00,33.6,25.7,30.12,SSE,150,1.1,1.1,72,0.00,,,0.00,0,TxWx,2013-01-07 04:03:00,
2013-01-06 23:05:00,33.7,25.6,30.12,ESE,103,0.0,0.0,71,0.00,,,0.00,0,TxWx,2013-01-07 04:05:00,
2013-01-06 23:07:00,33.5,25.7,30.12,SSW,200,0.0,0.0,72,0.00,,,0.00,0,TxWx,2013-01-07 04:07:00,
2013-01-06 23:08:00,33.5,25.7,30.12,SSW,195,0.0,0.0,72,0.00,,,0.00,0,TxWx,2013-01-07 04:08:00,
2013-01-06 23:10:00,33.5,25.7,30.12,SSW,195,0.0,0.0,72,0.00,,,0.00,0,TxWx,2013-01-07 04:10:00,
2013-01-06 23:12:00,33.3,25.9,30.12,SSW,206,0.0,0.0,74,0.00,,,0.00,0,TxWx,2013-01-07 04:12:00,
2013-01-06 23:13:00,33.2,25.9,30.12,SW,217,1.5,1.5,74,0.00,,,0.00,0,TxWx,2013-01-07 04:13:00,
2013-01-06 23:15:00,32.9,25.7,30.12,SSW,206,0.3,0.0,74,0.00,,,0.00,0,TxWx,2013-01-07 04:15:00,
2013-01-06 23:16:00,32.8,25.8,30.12,SSW,205,0.0,0.0,75,0.00,,,0.00,0,TxWx,2013-01-07 04:16:00,
2013-01-06 23:17:00,32.8,25.8,30.13,South,185,0.0,0.0,75,0.00,,,0.00,0,TxWx,2013-01-07 04:17:00,
2013-01-06 23:19:00,33.0,25.7,30.13,SSW,202,0.0,0.0,74,0.00,,,0.00,0,TxWx,2013-01-07 04:19:00,
2013-01-06 23:20:00,33.2,25.7,30.13,South,174,0.0,0.0,73,0.00,,,0.00,0,TxWx,2013-01-07 04:20:00,
2013-01-06 23:21:00,33.1,25.9,30.13,WSW,240,0.0,0.0,74,0.00,,,0.00,0,TxWx,2013-01-07 04:21:00,
2013-01-06 23:22:00,33.1,26.1,30.13,SW,225,0.0,0.0,75,0.00,,,0.00,0,TxWx,2013-01-07 04:22:00,
2013-01-06 23:24:00,33.0,26.2,30.13,SW,225,0.0,0.0,75,0.00,,,0.00,0,TxWx,2013-01-07 04:24:00,
2013-01-06 23:25:00,33.1,26.1,30.13,SW,225,0.0,0.0,75,0.00,,,0.00,0,TxWx,2013-01-07 04:25:00,
2013-01-06 23:26:00,33.1,26.3,30.13,WNW,302,0.0,0.0,75,0.00,,,0.00,0,TxWx,2013-01-07 04:26:00,
2013-01-06 23:28:00,33.0,26.7,30.13,NE,41,0.0,0.0,77,0.00,,,0.00,0,TxWx,2013-01-07 04:28:00,
2013-01-06 23:29:00,33.0,26.6,30.13,NE,41,0.0,0.0,77,0.00,,,0.00,0,TxWx,2013-01-07 04:29:00,
2013-01-06 23:30:00,32.8,26.5,30.14,SSE,165,0.7,0.0,77,0.00,,,0.00,0,TxWx,2013-01-07 04:30:00,
2013-01-06 23:31:00,33.0,26.2,30.14,South,184,1.1,1.1,75,0.00,,,0.00,0,TxWx,2013-01-07 04:31:00,
2013-01-06 23:33:00,33.2,26.3,30.14,SSW,200,0.7,0.0,75,0.00,,,0.00,0,TxWx,2013-01-07 04:33:00,
2013-01-06 23:34:00,33.2,26.4,30.14,South,186,0.7,0.0,75,0.00,,,0.00,0,TxWx,2013-01-07 04:34:00,
2013-01-06 23:35:00,33.3,26.4,30.14,ESE,115,0.3,0.0,75,0.00,,,0.00,0,TxWx,2013-01-07 04:35:00,
2013-01-06 23:36:00,33.4,26.5,30.14,North,358,0.7,0.0,75,0.00,,,0.00,0,TxWx,2013-01-07 04:36:00,
2013-01-06 23:38:00,33.5,26.6,30.14,ENE,67,0.7,0.0,75,0.00,,,0.00,0,TxWx,2013-01-07 04:38:00,
2013-01-06 23:39:00,33.5,26.5,30.14,NNE,27,1.5,1.5,75,0.00,,,0.00,0,TxWx,2013-01-07 04:39:00,
2013-01-06 23:40:00,33.7,26.7,30.14,South,176,0.7,1.0,75,0.00,,,0.00,0,TxWx,2013-01-07 04:40:00,
2013-01-06 23:41:00,33.7,26.6,30.14,WSW,248,1.5,1.5,75,0.00,,,0.00,0,TxWx,2013-01-07 04:41:00,
2013-01-06 23:43:00,33.8,26.7,30.14,SSE,167,0.7,0.0,74,0.00,,,0.00,0,TxWx,2013-01-07 04:43:00,
2013-01-06 23:44:00,33.8,26.8,30.14,West,275,3.4,3.4,75,0.00,,,0.00,0,TxWx,2013-01-07 04:44:00,
2013-01-06 23:46:00,33.6,27.1,30.14,SSW,212,2.3,3.0,76,0.00,,,0.00,0,TxWx,2013-01-07 04:46:00,
2013-01-06 23:48:00,33.5,27.3,30.14,SW,223,0.0,0.0,77,0.00,,,0.00,0,TxWx,2013-01-07 04:48:00,
2013-01-06 23:49:00,33.4,27.3,30.14,ENE,62,5.3,5.3,78,0.00,,,0.00,0,TxWx,2013-01-07 04:49:00,
2013-01-06 23:51:00,33.4,27.8,30.14,WSW,237,0.3,0.0,79,0.00,,,0.00,0,TxWx,2013-01-07 04:51:00,
2013-01-06 23:53:00,33.2,27.6,30.14,West,279,2.3,2.3,79,0.00,,,0.00,0,TxWx,2013-01-07 04:53:00,
2013-01-06 23:54:00,33.0,27.4,30.14,North,0,1.1,1.1,79,0.00,,,0.00,0,TxWx,2013-01-07 04:54:00,
2013-01-06 23:56:00,32.9,27.7,30.14,South,183,1.1,1.1,80,0.00,,,0.00,0,TxWx,2013-01-07 04:56:00,
2013-01-06 23:58:00,32.8,27.7,30.14,South,174,0.0,0.0,81,0.00,,,0.00,0,TxWx,2013-01-07 04:58:00,
2013-01-06 23:59:00,32.8,27.8,30.14,ENE,61,0.0,0.0,81,0.00,,,0.00,0,TxWx,2013-01-07 04:59:00,